APK230 MYNN-DNMM

Flight info

Callsign APK230
Flight time 9h 54m
Altitude 29000
Route ZQA DCT MILLE/M082F290 DCT 26N070W 26N060W/M082F310 25N050W 24N045W 23N040W DCT ERNEK/N0489F330 DCT ILGAS DCT NUSIT DCT KETAS UA600 TOBAS/N0490F350 UA600 BKO UG851 SEXEM UG854 BD UA601 NANGA DCT PAMPA DCT TEMSA UT467 LAG
Aircraft B77W/H-SDE1E2E3FGHIJ2J3J4J5M1RWXY/LB1D1

Departure

Time 2026-05-08 22:38
Airport Lynden Pindling International Airport (MYNN)

Arrival

Time 2026-05-09 08:32
Airport Murtala Muhammed International Airport (DNMM)
Time Latitude Longitude Altitude Speed Heading
2026-05-08 22:16 25.04863 -77.46824 22 ft 0 kts 146°
2026-05-08 22:26 25.04870 -77.46829 25 ft 3 kts 146°
2026-05-08 22:26 25.04887 -77.46841 23 ft 3 kts 146°
2026-05-08 22:27 25.04903 -77.46853 24 ft 3 kts 154°
2026-05-08 22:27 25.04920 -77.46860 23 ft 3 kts 174°
2026-05-08 22:27 25.04935 -77.46860 24 ft 3 kts 202°
2026-05-08 22:27 25.04945 -77.46854 24 ft 3 kts 236°
2026-05-08 22:28 25.04950 -77.46846 25 ft 1 kts 245°
2026-05-08 22:28 25.04951 -77.46844 25 ft 0 kts 245°
2026-05-08 22:32 25.04943 -77.46864 25 ft 8 kts 245°
2026-05-08 22:32 25.04916 -77.46925 23 ft 9 kts 244°
2026-05-08 22:32 25.04901 -77.46968 26 ft 9 kts 262°
2026-05-08 22:33 25.04928 -77.47028 24 ft 9 kts 309°
2026-05-08 22:33 25.04978 -77.47085 24 ft 12 kts 314°
2026-05-08 22:33 25.05045 -77.47162 25 ft 16 kts 314°
2026-05-08 22:33 25.05130 -77.47256 27 ft 19 kts 314°
2026-05-08 22:34 25.05217 -77.47369 24 ft 15 kts 291°
2026-05-08 22:34 25.05218 -77.47408 23 ft 0 kts 259°
2026-05-08 22:35 25.05208 -77.47463 28 ft 10 kts 257°
2026-05-08 22:36 25.05184 -77.47535 29 ft 4 kts 228°
2026-05-08 22:36 25.05163 -77.47537 30 ft 5 kts 171°
2026-05-08 22:36 25.05143 -77.47522 30 ft 0 kts 136°
2026-05-08 22:37 25.04979 -77.47344 27 ft 70 kts 135°
2026-05-08 22:37 25.04457 -77.46763 29 ft 141 kts 135°
2026-05-08 22:37 25.03609 -77.45818 33 ft 203 kts 132°
2026-05-08 22:38 25.02613 -77.44747 805 ft 192 kts 134°
2026-05-08 22:38 25.01632 -77.43750 1666 ft 196 kts 137°
2026-05-08 22:38 25.00590 -77.42699 2252 ft 207 kts 138°
2026-05-08 22:38 24.99539 -77.41648 2837 ft 205 kts 137°
2026-05-08 22:39 24.98465 -77.40527 2947 ft 221 kts 136°
2026-05-08 22:39 24.97301 -77.39303 3049 ft 241 kts 136°
2026-05-08 22:39 24.96043 -77.37975 3202 ft 260 kts 136°
2026-05-08 22:39 24.94714 -77.36565 3516 ft 274 kts 136°
2026-05-08 22:40 24.93329 -77.35086 4027 ft 281 kts 136°
2026-05-08 22:40 24.91918 -77.33568 4628 ft 285 kts 136°
2026-05-08 22:40 24.90470 -77.32000 5030 ft 299 kts 136°
2026-05-08 22:40 24.88965 -77.30367 5491 ft 307 kts 135°
2026-05-08 22:41 24.87758 -77.28419 5898 ft 315 kts 108°
2026-05-08 22:41 24.87572 -77.26038 6463 ft 318 kts 78°
2026-05-08 22:41 24.88234 -77.23704 7056 ft 321 kts 67°
2026-05-08 22:41 24.89139 -77.21448 7666 ft 323 kts 65°
2026-05-08 22:42 24.90066 -77.19191 8316 ft 324 kts 66°
2026-05-08 22:42 24.90958 -77.16910 8986 ft 324 kts 68°
2026-05-08 22:42 24.91807 -77.14602 9606 ft 326 kts 69°
2026-05-08 22:42 24.92623 -77.12265 10172 ft 328 kts 69°
2026-05-08 22:43 24.93417 -77.09894 10664 ft 332 kts 70°
2026-05-08 22:43 24.94212 -77.07449 10883 ft 347 kts 70°
2026-05-08 22:43 24.95031 -77.04879 11007 ft 364 kts 70°
2026-05-08 22:43 24.95874 -77.02190 11245 ft 376 kts 71°
2026-05-08 22:44 24.96729 -76.99437 11650 ft 384 kts 71°
2026-05-08 22:44 24.97597 -76.96624 12081 ft 390 kts 71°
2026-05-08 22:44 24.98473 -76.93774 12560 ft 394 kts 71°
2026-05-08 22:44 24.99356 -76.90893 13108 ft 397 kts 71°
2026-05-08 22:45 25.00242 -76.87997 13627 ft 400 kts 71°
2026-05-08 22:45 25.01133 -76.85081 14109 ft 403 kts 71°
2026-05-08 22:45 25.02032 -76.82141 14575 ft 406 kts 70°
2026-05-08 22:45 25.02927 -76.79207 15048 ft 409 kts 70°
2026-05-08 22:46 25.03838 -76.76221 15504 ft 412 kts 70°
2026-05-08 22:46 25.04754 -76.73216 15976 ft 414 kts 70°
2026-05-08 22:46 25.05674 -76.70194 16451 ft 417 kts 70°
2026-05-08 22:46 25.06601 -76.67151 16889 ft 420 kts 70°
2026-05-08 22:47 25.07536 -76.64076 17342 ft 423 kts 70°
2026-05-08 22:47 25.08473 -76.60991 17803 ft 426 kts 70°
2026-05-08 22:47 25.09417 -76.57884 18251 ft 429 kts 70°
2026-05-08 22:47 25.10366 -76.54754 18634 ft 432 kts 70°
2026-05-08 22:48 25.11322 -76.51600 19014 ft 435 kts 70°
2026-05-08 22:48 25.12285 -76.48422 19383 ft 438 kts 70°
2026-05-08 22:48 25.13254 -76.45218 19749 ft 441 kts 70°
2026-05-08 22:48 25.14230 -76.41991 20102 ft 445 kts 69°
2026-05-08 22:49 25.15210 -76.38744 20472 ft 448 kts 69°
2026-05-08 22:49 25.17178 -76.32220 21178 ft 454 kts 69°
2026-05-08 22:49 25.18176 -76.28909 21527 ft 457 kts 69°
2026-05-08 22:50 25.19182 -76.25564 21876 ft 460 kts 69°
2026-05-08 22:50 25.20192 -76.22204 22216 ft 463 kts 69°
2026-05-08 22:50 25.21211 -76.18815 22558 ft 466 kts 69°
2026-05-08 22:50 25.22232 -76.15412 22898 ft 468 kts 69°
2026-05-08 22:51 25.23260 -76.11985 23227 ft 471 kts 69°
2026-05-08 22:51 25.24292 -76.08537 23557 ft 474 kts 69°
2026-05-08 22:51 25.25330 -76.05070 23839 ft 477 kts 69°
2026-05-08 22:51 25.26371 -76.01588 24106 ft 479 kts 69°
2026-05-08 22:52 25.27417 -75.98084 24402 ft 480 kts 69°
2026-05-08 22:52 25.28466 -75.94567 24694 ft 482 kts 69°
2026-05-08 22:52 25.29512 -75.91059 24958 ft 484 kts 69°
2026-05-08 22:52 25.30567 -75.87516 25234 ft 486 kts 69°
2026-05-08 22:53 25.31624 -75.83965 25492 ft 488 kts 69°
2026-05-08 22:53 25.32686 -75.80392 25759 ft 490 kts 69°
2026-05-08 22:53 25.33748 -75.76813 26025 ft 491 kts 69°
2026-05-08 22:53 25.34816 -75.73215 26274 ft 493 kts 69°
2026-05-08 22:54 25.35888 -75.69599 26532 ft 495 kts 69°
2026-05-08 22:54 25.36961 -75.65974 26806 ft 497 kts 69°
2026-05-08 22:54 25.38035 -75.62340 27070 ft 499 kts 69°
2026-05-08 22:54 25.39115 -75.58686 27297 ft 500 kts 69°
2026-05-08 22:55 25.40183 -75.55067 27537 ft 502 kts 69°
2026-05-08 22:55 25.41270 -75.51382 27788 ft 504 kts 69°
2026-05-08 22:55 25.42356 -75.47693 28016 ft 506 kts 69°
2026-05-08 22:55 25.43450 -75.43978 28231 ft 508 kts 69°
2026-05-08 22:56 25.44543 -75.40257 28449 ft 509 kts 69°
2026-05-08 22:56 25.45638 -75.36529 28658 ft 511 kts 69°
2026-05-08 22:56 25.46739 -75.32776 28862 ft 513 kts 69°
2026-05-08 22:56 25.47840 -75.29020 28955 ft 516 kts 69°
2026-05-08 22:57 25.50050 -75.21463 29021 ft 515 kts 69°
2026-05-08 22:57 25.52249 -75.13926 29027 ft 513 kts 69°
2026-05-08 22:58 25.54434 -75.06426 29079 ft 512 kts 70°
2026-05-08 22:58 25.56626 -74.98892 29045 ft 521 kts 70°
2026-05-08 22:59 25.58858 -74.91200 29034 ft 525 kts 70°
2026-05-08 22:59 25.61085 -74.83504 29031 ft 525 kts 70°
2026-05-08 23:00 25.63304 -74.75815 29032 ft 524 kts 70°
2026-05-08 23:00 25.65521 -74.68123 29030 ft 523 kts 70°
2026-05-08 23:01 25.67730 -74.60441 29037 ft 522 kts 70°
2026-05-08 23:01 25.69932 -74.52766 29034 ft 522 kts 70°
2026-05-08 23:02 25.72115 -74.45144 29030 ft 521 kts 70°
2026-05-08 23:02 25.74307 -74.37470 29039 ft 521 kts 70°
2026-05-08 23:03 25.76496 -74.29790 29040 ft 522 kts 70°
2026-05-08 23:03 25.78669 -74.22152 29034 ft 522 kts 70°
2026-05-08 23:04 25.80849 -74.14468 29036 ft 522 kts 70°
2026-05-08 23:04 25.83030 -74.06766 29039 ft 522 kts 70°
2026-05-08 23:05 25.85207 -73.99061 29036 ft 523 kts 70°
2026-05-08 23:05 25.87380 -73.91352 29036 ft 522 kts 70°
2026-05-08 23:06 25.89547 -73.83644 29039 ft 522 kts 70°
2026-05-08 23:06 25.91674 -73.75965 29037 ft 523 kts 73°
2026-05-08 23:07 25.92937 -73.67993 29037 ft 526 kts 84°
2026-05-08 23:07 25.93189 -73.59853 29051 ft 527 kts 87°
2026-05-08 23:08 25.93375 -73.51722 29043 ft 527 kts 86°
2026-05-08 23:08 25.93596 -73.43579 29044 ft 527 kts 86°
2026-05-08 23:09 25.93839 -73.35446 29045 ft 526 kts 86°
2026-05-08 23:09 25.94085 -73.27307 29041 ft 526 kts 86°
2026-05-08 23:10 25.94322 -73.19232 29044 ft 526 kts 86°
2026-05-08 23:10 25.94554 -73.11097 29045 ft 526 kts 86°
2026-05-08 23:11 25.94781 -73.02981 29045 ft 526 kts 86°
2026-05-08 23:11 25.95003 -72.94861 29049 ft 525 kts 86°
2026-05-08 23:12 25.95220 -72.86729 29051 ft 525 kts 86°
2026-05-08 23:12 25.95433 -72.78630 29051 ft 525 kts 86°
2026-05-08 23:13 25.95641 -72.70524 29046 ft 525 kts 86°
2026-05-08 23:13 25.95844 -72.62471 29052 ft 524 kts 86°
2026-05-08 23:14 25.96043 -72.54372 29049 ft 524 kts 86°
2026-05-08 23:14 25.96238 -72.46273 29055 ft 524 kts 86°
2026-05-08 23:15 25.96428 -72.38168 29053 ft 524 kts 86°
2026-05-08 23:15 25.96613 -72.30072 29055 ft 524 kts 86°
2026-05-08 23:16 25.96794 -72.21975 29053 ft 524 kts 86°
2026-05-08 23:16 25.96941 -72.15246 29055 ft 524 kts 86°
2026-05-08 23:17 25.97114 -72.07134 29056 ft 524 kts 86°
2026-05-08 23:17 25.97309 -71.97720 29057 ft 524 kts 86°
2026-05-08 23:18 25.97445 -71.90975 29059 ft 524 kts 86°
2026-05-08 23:18 25.97605 -71.82878 29055 ft 524 kts 86°
2026-05-08 23:19 25.97759 -71.74780 29051 ft 524 kts 86°
2026-05-08 23:19 25.97910 -71.66679 29055 ft 524 kts 86°
2026-05-08 23:20 25.98055 -71.58585 29057 ft 524 kts 86°
2026-05-08 23:20 25.98196 -71.50486 29070 ft 524 kts 86°
2026-05-08 23:21 25.98333 -71.42394 29073 ft 524 kts 86°
2026-05-08 23:21 25.98465 -71.34298 29074 ft 523 kts 86°
2026-05-08 23:22 25.98593 -71.26213 29072 ft 523 kts 86°
2026-05-08 23:22 25.98716 -71.18121 29072 ft 523 kts 86°
2026-05-08 23:23 25.98833 -71.10084 29079 ft 523 kts 86°
2026-05-08 23:23 25.98947 -71.01998 29076 ft 523 kts 87°
2026-05-08 23:24 25.99057 -70.93916 29075 ft 523 kts 87°
2026-05-08 23:24 25.99162 -70.85829 29076 ft 523 kts 87°
2026-05-08 23:25 25.99262 -70.77747 29080 ft 523 kts 87°
2026-05-08 23:25 25.99358 -70.69661 29078 ft 523 kts 87°
2026-05-08 23:26 25.99450 -70.61581 29080 ft 522 kts 87°
2026-05-08 23:26 25.99537 -70.53513 29083 ft 522 kts 87°
2026-05-08 23:27 25.99619 -70.45444 29080 ft 522 kts 87°
2026-05-08 23:27 25.99697 -70.37372 29082 ft 522 kts 87°
2026-05-08 23:28 25.99771 -70.29298 29082 ft 522 kts 87°
2026-05-08 23:28 25.99839 -70.21283 29081 ft 522 kts 87°
2026-05-08 23:29 25.99904 -70.13212 29082 ft 522 kts 87°
2026-05-08 23:29 25.99964 -70.05146 29079 ft 522 kts 87°
2026-05-08 23:30 26.00043 -69.97077 29090 ft 521 kts 86°
2026-05-08 23:30 26.00303 -69.89022 29083 ft 521 kts 85°
2026-05-08 23:31 26.00618 -69.80983 29087 ft 521 kts 85°
2026-05-08 23:31 26.00908 -69.72939 29085 ft 521 kts 85°
2026-05-08 23:32 26.01173 -69.64891 29085 ft 521 kts 86°
2026-05-08 23:32 26.01426 -69.56843 29087 ft 521 kts 86°
2026-05-08 23:33 26.01675 -69.48791 29087 ft 521 kts 86°
2026-05-08 23:33 26.01921 -69.40741 29086 ft 521 kts 86°
2026-05-08 23:34 26.02162 -69.32746 29084 ft 521 kts 86°
2026-05-08 23:34 26.02400 -69.24691 29084 ft 521 kts 86°
2026-05-08 23:35 26.02633 -69.16647 29087 ft 521 kts 86°
2026-05-08 23:35 26.02862 -69.08594 29088 ft 521 kts 86°
2026-05-08 23:36 26.03087 -69.00546 29087 ft 521 kts 86°
2026-05-08 23:36 26.03307 -68.92498 29089 ft 521 kts 86°
2026-05-08 23:37 26.03523 -68.84443 29093 ft 521 kts 86°
2026-05-08 23:37 26.03732 -68.76447 29087 ft 521 kts 86°
2026-05-08 23:38 26.03940 -68.68343 29093 ft 521 kts 86°
2026-05-08 23:38 26.04141 -68.60346 29092 ft 521 kts 86°
2026-05-08 23:39 26.04339 -68.52291 29093 ft 521 kts 86°
2026-05-08 23:39 26.04532 -68.44235 29093 ft 521 kts 86°
2026-05-08 23:40 26.04721 -68.36178 29091 ft 521 kts 86°
2026-05-08 23:40 26.04905 -68.28133 29094 ft 521 kts 86°
2026-05-08 23:41 26.05084 -68.20123 29097 ft 521 kts 86°
2026-05-08 23:41 26.05260 -68.12067 29098 ft 521 kts 86°
2026-05-08 23:42 26.05431 -68.04012 29094 ft 521 kts 86°
2026-05-08 23:42 26.05597 -67.95963 29096 ft 521 kts 86°
2026-05-08 23:43 26.05760 -67.87896 29095 ft 521 kts 86°
2026-05-08 23:43 26.05917 -67.79845 29097 ft 521 kts 86°
2026-05-08 23:44 26.06071 -67.71783 29098 ft 521 kts 86°
2026-05-08 23:44 26.06219 -67.63725 29096 ft 521 kts 86°
2026-05-08 23:45 26.06363 -67.55670 29096 ft 521 kts 86°
2026-05-08 23:45 26.06502 -67.47661 29097 ft 521 kts 86°
2026-05-08 23:46 26.06638 -67.39605 29101 ft 521 kts 86°
2026-05-08 23:46 26.06769 -67.31543 29099 ft 521 kts 86°
2026-05-08 23:47 26.06895 -67.23497 29100 ft 521 kts 86°
2026-05-08 23:47 26.07017 -67.15438 29102 ft 521 kts 87°
2026-05-08 23:48 26.07134 -67.07383 29100 ft 520 kts 87°
2026-05-08 23:48 26.07247 -66.99335 29100 ft 520 kts 87°
2026-05-08 23:49 26.07355 -66.91280 29104 ft 520 kts 87°
2026-05-08 23:49 26.07459 -66.83240 29101 ft 520 kts 87°
2026-05-08 23:50 26.07558 -66.75196 29097 ft 520 kts 87°
2026-05-08 23:50 26.07653 -66.67207 29106 ft 520 kts 87°
2026-05-08 23:51 26.07743 -66.59166 29101 ft 520 kts 87°
2026-05-08 23:51 26.07829 -66.51125 29103 ft 519 kts 87°
2026-05-08 23:52 26.07911 -66.43091 29104 ft 519 kts 87°
2026-05-08 23:52 26.07988 -66.35065 29103 ft 519 kts 87°
2026-05-08 23:53 26.08060 -66.27036 29099 ft 519 kts 87°
2026-05-08 23:53 26.08128 -66.19002 29105 ft 519 kts 87°
2026-05-08 23:54 26.08191 -66.11026 29098 ft 518 kts 88°
2026-05-08 23:55 26.08278 -65.99004 29104 ft 518 kts 88°
2026-05-08 23:55 26.08331 -65.91002 29102 ft 517 kts 88°
2026-05-08 23:56 26.08379 -65.83003 29110 ft 517 kts 88°
2026-05-08 23:56 26.08422 -65.75010 29110 ft 516 kts 88°
2026-05-08 23:57 26.08461 -65.67029 29104 ft 516 kts 88°
2026-05-08 23:57 26.08496 -65.59038 29107 ft 516 kts 88°
2026-05-08 23:58 26.08526 -65.51058 29098 ft 515 kts 88°
2026-05-08 23:58 26.08552 -65.43088 29112 ft 515 kts 88°
2026-05-08 23:59 26.08574 -65.35123 29100 ft 515 kts 88°
2026-05-08 23:59 26.08591 -65.27159 29115 ft 515 kts 88°
2026-05-09 00:00 26.08603 -65.19198 29113 ft 514 kts 88°
2026-05-09 00:00 26.08612 -65.11246 29111 ft 514 kts 88°
2026-05-09 00:01 26.08616 -65.03342 29103 ft 514 kts 88°
2026-05-09 00:01 26.08615 -64.95394 29107 ft 514 kts 88°
2026-05-09 00:02 26.08612 -64.88779 29113 ft 514 kts 88°
2026-05-09 00:02 26.08603 -64.80832 29114 ft 513 kts 88°
2026-05-09 00:03 26.08588 -64.71593 29122 ft 513 kts 89°
2026-05-09 00:03 26.08571 -64.63648 29114 ft 513 kts 89°
2026-05-09 00:04 26.08552 -64.56991 29117 ft 513 kts 89°
2026-05-09 00:04 26.08527 -64.49090 29111 ft 513 kts 89°
2026-05-09 00:05 26.08497 -64.41143 29116 ft 513 kts 89°
2026-05-09 00:05 26.08462 -64.33201 29119 ft 513 kts 89°
2026-05-09 00:06 26.08423 -64.25265 29108 ft 513 kts 89°
2026-05-09 00:06 26.08380 -64.17320 29118 ft 513 kts 89°
2026-05-09 00:07 26.08333 -64.09389 29114 ft 513 kts 89°
2026-05-09 00:07 26.08281 -64.01453 29120 ft 514 kts 89°
2026-05-09 00:07 26.08254 -63.97470 29236 ft 517 kts 89°
2026-05-09 00:08 26.08226 -63.93522 29559 ft 516 kts 89°
2026-05-09 00:08 26.08196 -63.89542 29947 ft 513 kts 89°
2026-05-09 00:08 26.08165 -63.85580 30288 ft 513 kts 89°
2026-05-09 00:08 26.08133 -63.81611 30514 ft 513 kts 89°
2026-05-09 00:09 26.08100 -63.77639 30715 ft 514 kts 89°
2026-05-09 00:09 26.08066 -63.73647 30940 ft 515 kts 89°
2026-05-09 00:09 26.08031 -63.69663 31038 ft 516 kts 89°
2026-05-09 00:10 26.07957 -63.61674 31109 ft 516 kts 89°
2026-05-09 00:10 26.07879 -63.53712 31110 ft 514 kts 89°
2026-05-09 00:11 26.07796 -63.45768 31117 ft 513 kts 89°
2026-05-09 00:11 26.07710 -63.37841 31117 ft 512 kts 89°
2026-05-09 00:12 26.07619 -63.29913 31117 ft 512 kts 89°
2026-05-09 00:12 26.07525 -63.22034 31115 ft 513 kts 89°
2026-05-09 00:13 26.07425 -63.14083 31121 ft 514 kts 89°
2026-05-09 00:13 26.07321 -63.06127 31118 ft 515 kts 89°
2026-05-09 00:14 26.07212 -62.98158 31118 ft 515 kts 89°
2026-05-09 00:14 26.07099 -62.90184 31117 ft 515 kts 89°
2026-05-09 00:15 26.06982 -62.82204 31117 ft 515 kts 89°
2026-05-09 00:15 26.06860 -62.74280 31118 ft 515 kts 89°
2026-05-09 00:16 26.06734 -62.66321 31119 ft 515 kts 89°
2026-05-09 00:16 26.06604 -62.58365 31116 ft 514 kts 89°
2026-05-09 00:17 26.06469 -62.50403 31117 ft 514 kts 89°
2026-05-09 00:17 26.06330 -62.42463 31120 ft 514 kts 89°
2026-05-09 00:18 26.06188 -62.34569 31122 ft 513 kts 89°
2026-05-09 00:18 26.06041 -62.26624 31120 ft 513 kts 89°
2026-05-09 00:19 26.05889 -62.18684 31121 ft 513 kts 89°
2026-05-09 00:19 26.05733 -62.10748 31120 ft 513 kts 89°
2026-05-09 00:20 26.05572 -62.02808 31120 ft 513 kts 89°
2026-05-09 00:20 26.05407 -61.94865 31120 ft 513 kts 89°
2026-05-09 00:21 26.05238 -61.86932 31120 ft 513 kts 89°
2026-05-09 00:21 26.05065 -61.78997 31119 ft 513 kts 89°
2026-05-09 00:22 26.04887 -61.71061 31122 ft 513 kts 89°
2026-05-09 00:22 26.04705 -61.63129 31121 ft 513 kts 89°
2026-05-09 00:23 26.04519 -61.55201 31121 ft 513 kts 89°
2026-05-09 00:23 26.04328 -61.47269 31120 ft 513 kts 89°
2026-05-09 00:24 26.04134 -61.39385 31120 ft 513 kts 89°
2026-05-09 00:24 26.03935 -61.31461 31121 ft 513 kts 89°
2026-05-09 00:25 26.03731 -61.23529 31122 ft 513 kts 89°
2026-05-09 00:25 26.03523 -61.15589 31124 ft 513 kts 89°
2026-05-09 00:26 26.03311 -61.07657 31122 ft 513 kts 89°
2026-05-09 00:26 26.03094 -60.99718 31123 ft 513 kts 90°
2026-05-09 00:27 26.02873 -60.91785 31122 ft 513 kts 90°
2026-05-09 00:27 26.02649 -60.83907 31119 ft 513 kts 90°
2026-05-09 00:28 26.02419 -60.75988 31123 ft 513 kts 90°
2026-05-09 00:28 26.02186 -60.68065 31124 ft 512 kts 90°
2026-05-09 00:29 26.01948 -60.60152 31126 ft 512 kts 90°
2026-05-09 00:29 26.01706 -60.52233 31126 ft 512 kts 90°
2026-05-09 00:30 26.01459 -60.44313 31123 ft 512 kts 90°
2026-05-09 00:30 26.01208 -60.36400 31130 ft 512 kts 90°
2026-05-09 00:31 26.00953 -60.28492 31129 ft 512 kts 90°
2026-05-09 00:31 26.00694 -60.20580 31125 ft 512 kts 90°
2026-05-09 00:32 26.00430 -60.12665 31125 ft 512 kts 90°
2026-05-09 00:32 26.00163 -60.04743 31125 ft 512 kts 90°
2026-05-09 00:33 25.99862 -59.96830 31129 ft 513 kts 91°
2026-05-09 00:33 25.99354 -59.88972 31130 ft 513 kts 92°
2026-05-09 00:34 25.98778 -59.81057 31132 ft 513 kts 92°
2026-05-09 00:34 25.98222 -59.73153 31128 ft 513 kts 92°
2026-05-09 00:35 25.97684 -59.65232 31128 ft 514 kts 92°
2026-05-09 00:35 25.97148 -59.57302 31128 ft 514 kts 92°
2026-05-09 00:36 25.96609 -59.49386 31129 ft 514 kts 92°
2026-05-09 00:36 25.96066 -59.41514 31130 ft 514 kts 92°
2026-05-09 00:37 25.95516 -59.33598 31132 ft 514 kts 92°
2026-05-09 00:37 25.94961 -59.25680 31133 ft 514 kts 92°
2026-05-09 00:38 25.94401 -59.17756 31133 ft 514 kts 92°
2026-05-09 00:38 25.93837 -59.09835 31131 ft 514 kts 92°
2026-05-09 00:39 25.93268 -59.01909 31134 ft 515 kts 92°
2026-05-09 00:39 25.92695 -58.93976 31134 ft 515 kts 92°
2026-05-09 00:40 25.92118 -58.86054 31134 ft 515 kts 92°
2026-05-09 00:40 25.91536 -58.78122 31136 ft 515 kts 92°
2026-05-09 00:41 25.90654 -58.66223 31135 ft 515 kts 92°
2026-05-09 00:41 25.90061 -58.58288 31135 ft 515 kts 92°
2026-05-09 00:42 25.89467 -58.50403 31137 ft 515 kts 92°
2026-05-09 00:42 25.88864 -58.42466 31136 ft 516 kts 92°
2026-05-09 00:43 25.88257 -58.34520 31137 ft 516 kts 92°
2026-05-09 00:43 25.87646 -58.26586 31135 ft 516 kts 92°
2026-05-09 00:44 25.87032 -58.18656 31137 ft 515 kts 92°
2026-05-09 00:44 25.86412 -58.10720 31137 ft 515 kts 92°
2026-05-09 00:45 25.85788 -58.02791 31137 ft 515 kts 92°
2026-05-09 00:45 25.85161 -57.94865 31136 ft 515 kts 92°
2026-05-09 00:46 25.84533 -57.86996 31135 ft 515 kts 92°
2026-05-09 00:46 25.83898 -57.79086 31136 ft 514 kts 93°
2026-05-09 00:47 25.83258 -57.71164 31140 ft 514 kts 93°
2026-05-09 00:47 25.82614 -57.63253 31139 ft 514 kts 93°
2026-05-09 00:48 25.81970 -57.55395 31142 ft 514 kts 93°
2026-05-09 00:48 25.81319 -57.47500 31140 ft 514 kts 93°
2026-05-09 00:49 25.80663 -57.39604 31142 ft 514 kts 93°
2026-05-09 00:49 25.80003 -57.31704 31139 ft 514 kts 93°
2026-05-09 00:50 25.79451 -57.25142 31143 ft 514 kts 93°
2026-05-09 00:50 25.78783 -57.17240 31139 ft 514 kts 93°
2026-05-09 00:51 25.78110 -57.09338 31138 ft 514 kts 93°
2026-05-09 00:51 25.77433 -57.01437 31141 ft 514 kts 94°
2026-05-09 00:52 25.76758 -56.93602 31139 ft 514 kts 94°
2026-05-09 00:52 25.76072 -56.85707 31143 ft 514 kts 94°
2026-05-09 00:53 25.75383 -56.77815 31143 ft 514 kts 94°
2026-05-09 00:53 25.74690 -56.69927 31141 ft 514 kts 94°
2026-05-09 00:54 25.73993 -56.62041 31144 ft 514 kts 94°
2026-05-09 00:54 25.73295 -56.54204 31142 ft 513 kts 94°
2026-05-09 00:55 25.72590 -56.46324 31137 ft 513 kts 94°
2026-05-09 00:55 25.71880 -56.38445 31139 ft 513 kts 94°
2026-05-09 00:56 25.71167 -56.30572 31137 ft 513 kts 94°
2026-05-09 00:56 25.70449 -56.22696 31147 ft 513 kts 94°
2026-05-09 00:57 25.69727 -56.14824 31142 ft 513 kts 94°
2026-05-09 00:57 25.69001 -56.06956 31139 ft 513 kts 94°
2026-05-09 00:58 25.68269 -55.99077 31138 ft 513 kts 94°
2026-05-09 00:58 25.67535 -55.91207 31140 ft 513 kts 94°
2026-05-09 00:59 25.66795 -55.83334 31143 ft 513 kts 94°
2026-05-09 00:59 25.66057 -55.75516 31144 ft 513 kts 94°
2026-05-09 01:00 25.65310 -55.67655 31142 ft 513 kts 94°
2026-05-09 01:00 25.64558 -55.59782 31142 ft 513 kts 94°
2026-05-09 01:01 25.63802 -55.51915 31144 ft 513 kts 94°
2026-05-09 01:01 25.63042 -55.44053 31143 ft 513 kts 94°
2026-05-09 01:02 25.62278 -55.36189 31139 ft 513 kts 94°
2026-05-09 01:02 25.61510 -55.28329 31149 ft 513 kts 94°
2026-05-09 01:03 25.60742 -55.20516 31152 ft 513 kts 94°
2026-05-09 01:03 25.59965 -55.12657 31145 ft 513 kts 94°
2026-05-09 01:04 25.59183 -55.04791 31146 ft 513 kts 94°
2026-05-09 01:04 25.58397 -54.96923 31147 ft 513 kts 94°
2026-05-09 01:05 25.57608 -54.89073 31145 ft 513 kts 93°
2026-05-09 01:06 25.56422 -54.77349 31146 ft 513 kts 93°
2026-05-09 01:06 25.55622 -54.69496 31148 ft 512 kts 93°
2026-05-09 01:07 25.54819 -54.61654 31147 ft 512 kts 93°
2026-05-09 01:07 25.54013 -54.53816 31143 ft 512 kts 93°
2026-05-09 01:08 25.53202 -54.45976 31141 ft 512 kts 93°
2026-05-09 01:08 25.52386 -54.38139 31153 ft 512 kts 93°
2026-05-09 01:09 25.51566 -54.30298 31147 ft 513 kts 93°
2026-05-09 01:09 25.50742 -54.22453 31155 ft 513 kts 94°
2026-05-09 01:10 25.49912 -54.14599 31151 ft 513 kts 94°
2026-05-09 01:10 25.49083 -54.06792 31151 ft 513 kts 94°
2026-05-09 01:11 25.48244 -53.98939 31147 ft 514 kts 94°
2026-05-09 01:11 25.47401 -53.91077 31152 ft 514 kts 94°
2026-05-09 01:12 25.46555 -53.83230 31152 ft 514 kts 94°
2026-05-09 01:12 25.45702 -53.75370 31154 ft 514 kts 94°
2026-05-09 01:13 25.44847 -53.67516 31148 ft 514 kts 94°
2026-05-09 01:13 25.43992 -53.59714 31153 ft 514 kts 93°
2026-05-09 01:14 25.43127 -53.51853 31153 ft 514 kts 93°
2026-05-09 01:14 25.42260 -53.44009 31151 ft 514 kts 93°
2026-05-09 01:15 25.41388 -53.36158 31156 ft 513 kts 93°
2026-05-09 01:15 25.40517 -53.28360 31155 ft 513 kts 93°
2026-05-09 01:16 25.39638 -53.20530 31154 ft 513 kts 93°
2026-05-09 01:16 25.38755 -53.12702 31154 ft 513 kts 94°
2026-05-09 01:17 25.37425 -53.00976 31157 ft 512 kts 94°
2026-05-09 01:17 25.36534 -52.93165 31152 ft 512 kts 94°
2026-05-09 01:18 25.35639 -52.85364 31148 ft 511 kts 94°
2026-05-09 01:18 25.34740 -52.77563 31153 ft 511 kts 94°
2026-05-09 01:19 25.33838 -52.69769 31153 ft 511 kts 94°
2026-05-09 01:19 25.32937 -52.62020 31153 ft 511 kts 94°
2026-05-09 01:20 25.32027 -52.54229 31153 ft 511 kts 95°
2026-05-09 01:20 25.31111 -52.46427 31155 ft 511 kts 95°
2026-05-09 01:21 25.30191 -52.38624 31158 ft 511 kts 95°
2026-05-09 01:21 25.29266 -52.30819 31155 ft 512 kts 95°
2026-05-09 01:22 25.28338 -52.23021 31152 ft 512 kts 95°
2026-05-09 01:22 25.27410 -52.15266 31160 ft 512 kts 95°
2026-05-09 01:23 25.26472 -52.07454 31156 ft 513 kts 95°
2026-05-09 01:23 25.25530 -51.99647 31155 ft 513 kts 95°
2026-05-09 01:24 25.24582 -51.91824 31152 ft 513 kts 94°
2026-05-09 01:24 25.23631 -51.84010 31154 ft 513 kts 94°
2026-05-09 01:25 25.22675 -51.76193 31164 ft 514 kts 94°
2026-05-09 01:25 25.21714 -51.68367 31154 ft 514 kts 94°
2026-05-09 01:26 25.20748 -51.60541 31153 ft 514 kts 94°
2026-05-09 01:26 25.19785 -51.52770 31155 ft 514 kts 94°
2026-05-09 01:27 25.18811 -51.44945 31161 ft 514 kts 94°
2026-05-09 01:27 25.17832 -51.37114 31153 ft 514 kts 94°
2026-05-09 01:28 25.16849 -51.29282 31154 ft 515 kts 94°
2026-05-09 01:28 25.15862 -51.21458 31157 ft 515 kts 94°
2026-05-09 01:29 25.14871 -51.13630 31159 ft 515 kts 94°
2026-05-09 01:29 25.13874 -51.05796 31160 ft 515 kts 94°
2026-05-09 01:30 25.12881 -50.98019 31158 ft 515 kts 94°
2026-05-09 01:30 25.11877 -50.90189 31157 ft 515 kts 94°
2026-05-09 01:31 25.10868 -50.82357 31161 ft 515 kts 94°
2026-05-09 01:31 25.09854 -50.74520 31157 ft 516 kts 94°
2026-05-09 01:32 25.08836 -50.66686 31162 ft 516 kts 94°
2026-05-09 01:32 25.07812 -50.58841 31161 ft 517 kts 94°
2026-05-09 01:33 25.06785 -50.51002 31162 ft 517 kts 94°
2026-05-09 01:33 25.05752 -50.43146 31163 ft 517 kts 94°
2026-05-09 01:34 25.04719 -50.35330 31165 ft 518 kts 94°
2026-05-09 01:34 25.03677 -50.27476 31158 ft 518 kts 94°
2026-05-09 01:35 25.02631 -50.19619 31161 ft 518 kts 94°
2026-05-09 01:35 25.01581 -50.11770 31163 ft 518 kts 94°
2026-05-09 01:36 25.00528 -50.03919 31159 ft 517 kts 94°
2026-05-09 01:36 24.99411 -49.96077 31161 ft 518 kts 96°
2026-05-09 01:37 24.97987 -49.88328 31165 ft 519 kts 97°
2026-05-09 01:37 24.96478 -49.80543 31162 ft 519 kts 97°
2026-05-09 01:38 24.95255 -49.74077 31159 ft 519 kts 97°
2026-05-09 01:38 24.93813 -49.66286 31161 ft 519 kts 97°
2026-05-09 01:39 24.92378 -49.58489 31161 ft 519 kts 97°
2026-05-09 01:39 24.90936 -49.50679 31162 ft 520 kts 97°
2026-05-09 01:40 24.89484 -49.42856 31163 ft 521 kts 97°
2026-05-09 01:40 24.88026 -49.35033 31163 ft 522 kts 97°
2026-05-09 01:41 24.86560 -49.27190 31163 ft 523 kts 97°
2026-05-09 01:41 24.85088 -49.19342 31161 ft 524 kts 97°
2026-05-09 01:42 24.83608 -49.11471 31162 ft 525 kts 97°
2026-05-09 01:42 24.82122 -49.03591 31161 ft 526 kts 97°
2026-05-09 01:43 24.80638 -48.95744 31161 ft 527 kts 97°
2026-05-09 01:43 24.79138 -48.87841 31156 ft 528 kts 97°
2026-05-09 01:44 24.77632 -48.79930 31160 ft 529 kts 97°
2026-05-09 01:44 24.76116 -48.71987 31159 ft 530 kts 97°
2026-05-09 01:45 24.74595 -48.64043 31163 ft 531 kts 97°
2026-05-09 01:45 24.73067 -48.56086 31162 ft 532 kts 97°
2026-05-09 01:46 24.71529 -48.48106 31163 ft 533 kts 97°
2026-05-09 01:46 24.69995 -48.40165 31162 ft 534 kts 97°
2026-05-09 01:47 24.68443 -48.32151 31164 ft 535 kts 97°
2026-05-09 01:47 24.66884 -48.24131 31164 ft 536 kts 97°
2026-05-09 01:48 24.65321 -48.16113 31163 ft 536 kts 97°
2026-05-09 01:48 24.63753 -48.08096 31162 ft 536 kts 97°
2026-05-09 01:49 24.62181 -48.00079 31160 ft 536 kts 98°
2026-05-09 01:49 24.60618 -47.92131 31162 ft 535 kts 98°
2026-05-09 01:50 24.59042 -47.84144 31161 ft 535 kts 98°
2026-05-09 01:50 24.57454 -47.76118 31156 ft 534 kts 98°
2026-05-09 01:51 24.55884 -47.68202 31157 ft 533 kts 98°
2026-05-09 01:51 24.54302 -47.60250 31156 ft 532 kts 99°
2026-05-09 01:52 24.52721 -47.52330 31165 ft 530 kts 99°
2026-05-09 01:52 24.51140 -47.44425 31159 ft 529 kts 99°
2026-05-09 01:53 24.49558 -47.36543 31160 ft 528 kts 99°
2026-05-09 01:53 24.47977 -47.28689 31160 ft 527 kts 99°
2026-05-09 01:54 24.46394 -47.20842 31159 ft 526 kts 100°
2026-05-09 01:54 24.44810 -47.13016 31161 ft 525 kts 100°
2026-05-09 01:55 24.43223 -47.05196 31162 ft 525 kts 100°
2026-05-09 01:55 24.41630 -46.97370 31162 ft 524 kts 100°
2026-05-09 01:56 24.40047 -46.89613 31161 ft 524 kts 101°
2026-05-09 01:56 24.38448 -46.81799 31158 ft 524 kts 101°
2026-05-09 01:57 24.36846 -46.73995 31157 ft 524 kts 101°
2026-05-09 01:57 24.35241 -46.66193 31162 ft 525 kts 101°
2026-05-09 01:58 24.33630 -46.58388 31162 ft 525 kts 101°
2026-05-09 01:58 24.32015 -46.50583 31160 ft 525 kts 101°
2026-05-09 01:59 24.30396 -46.42777 31160 ft 525 kts 101°
2026-05-09 01:59 24.28772 -46.34972 31163 ft 525 kts 101°
2026-05-09 02:00 24.27143 -46.27161 31161 ft 526 kts 102°
2026-05-09 02:00 24.25510 -46.19354 31161 ft 526 kts 102°
2026-05-09 02:01 24.23868 -46.11528 31160 ft 526 kts 102°
2026-05-09 02:01 24.22226 -46.03716 31159 ft 526 kts 102°
2026-05-09 02:02 24.20588 -45.95950 31158 ft 526 kts 102°
2026-05-09 02:02 24.18937 -45.88141 31165 ft 526 kts 103°
2026-05-09 02:03 24.17284 -45.80344 31171 ft 526 kts 103°
2026-05-09 02:03 24.15627 -45.72544 31161 ft 525 kts 103°
2026-05-09 02:04 24.13967 -45.64758 31158 ft 524 kts 103°
2026-05-09 02:04 24.12308 -45.56992 31162 ft 523 kts 104°
2026-05-09 02:05 24.10648 -45.49243 31164 ft 523 kts 104°
2026-05-09 02:05 24.08985 -45.41502 31160 ft 522 kts 104°
2026-05-09 02:06 24.07318 -45.33761 31164 ft 522 kts 104°
2026-05-09 02:07 24.04818 -45.22185 31164 ft 521 kts 104°
2026-05-09 02:07 24.03146 -45.14472 31163 ft 521 kts 105°
2026-05-09 02:08 24.01469 -45.06748 31166 ft 521 kts 105°
2026-05-09 02:08 23.99793 -44.99040 31168 ft 521 kts 105°
2026-05-09 02:09 23.98312 -44.91331 31164 ft 521 kts 103°
2026-05-09 02:09 23.96940 -44.83548 31161 ft 521 kts 103°
2026-05-09 02:10 23.95551 -44.75771 31164 ft 521 kts 103°
2026-05-09 02:10 23.94128 -44.68002 31160 ft 521 kts 103°
2026-05-09 02:11 23.92689 -44.60243 31160 ft 521 kts 103°
2026-05-09 02:11 23.91245 -44.52476 31161 ft 521 kts 104°
2026-05-09 02:12 23.89799 -44.44713 31163 ft 521 kts 104°
2026-05-09 02:12 23.88350 -44.36952 31165 ft 521 kts 104°
2026-05-09 02:13 23.86898 -44.29193 31161 ft 521 kts 104°
2026-05-09 02:13 23.85439 -44.21423 31159 ft 522 kts 104°
2026-05-09 02:14 23.83987 -44.13709 31160 ft 522 kts 104°
2026-05-09 02:14 23.82522 -44.05950 31162 ft 522 kts 104°
2026-05-09 02:15 23.81051 -43.98184 31162 ft 522 kts 104°
2026-05-09 02:15 23.79577 -43.90422 31162 ft 521 kts 105°
2026-05-09 02:16 23.78101 -43.82672 31163 ft 521 kts 105°
2026-05-09 02:16 23.76622 -43.74926 31160 ft 521 kts 105°
2026-05-09 02:17 23.75139 -43.67183 31161 ft 521 kts 105°
2026-05-09 02:17 23.73650 -43.59430 31160 ft 521 kts 105°
2026-05-09 02:18 23.72159 -43.51692 31158 ft 521 kts 105°
2026-05-09 02:18 23.70672 -43.43994 31160 ft 521 kts 105°
2026-05-09 02:19 23.69171 -43.36246 31164 ft 522 kts 105°
2026-05-09 02:19 23.67666 -43.28498 31160 ft 522 kts 105°
2026-05-09 02:20 23.66157 -43.20750 31164 ft 522 kts 105°
2026-05-09 02:20 23.64643 -43.13000 31162 ft 522 kts 106°
2026-05-09 02:21 23.63125 -43.05247 31163 ft 523 kts 106°
2026-05-09 02:21 23.61602 -42.97495 31162 ft 523 kts 106°
2026-05-09 02:22 23.60084 -42.89785 31159 ft 523 kts 106°
2026-05-09 02:22 23.58553 -42.82032 31162 ft 523 kts 106°
2026-05-09 02:23 23.57017 -42.74279 31162 ft 523 kts 106°
2026-05-09 02:23 23.55478 -42.66526 31157 ft 523 kts 107°
2026-05-09 02:24 23.53934 -42.58774 31160 ft 523 kts 107°
2026-05-09 02:24 23.52646 -42.52320 31158 ft 523 kts 107°
2026-05-09 02:25 23.51095 -42.44568 31165 ft 523 kts 107°
2026-05-09 02:25 23.49552 -42.36878 31164 ft 523 kts 107°
2026-05-09 02:26 23.47994 -42.29137 31163 ft 523 kts 107°
2026-05-09 02:26 23.46435 -42.21405 31160 ft 522 kts 107°
2026-05-09 02:27 23.44873 -42.13685 31169 ft 522 kts 108°
2026-05-09 02:27 23.43308 -42.05967 31161 ft 521 kts 108°
2026-05-09 02:28 23.41741 -41.98261 31159 ft 521 kts 108°
2026-05-09 02:28 23.40168 -41.90549 31161 ft 521 kts 108°
2026-05-09 02:29 23.38592 -41.82842 31164 ft 521 kts 108°
2026-05-09 02:29 23.37022 -41.75183 31162 ft 522 kts 108°
2026-05-09 02:30 23.35426 -41.67416 31157 ft 523 kts 108°
2026-05-09 02:30 23.33845 -41.59742 31158 ft 523 kts 108°
2026-05-09 02:31 23.32249 -41.52017 31160 ft 524 kts 108°
2026-05-09 02:31 23.30648 -41.44289 31160 ft 524 kts 108°
2026-05-09 02:32 23.29041 -41.36547 31161 ft 525 kts 109°
2026-05-09 02:32 23.27428 -41.28800 31163 ft 525 kts 109°
2026-05-09 02:33 23.25810 -41.21048 31165 ft 525 kts 109°
2026-05-09 02:33 23.24186 -41.13290 31159 ft 526 kts 109°
2026-05-09 02:34 23.22557 -41.05528 31160 ft 526 kts 109°
2026-05-09 02:34 23.20937 -40.97829 31157 ft 526 kts 109°
2026-05-09 02:35 23.19290 -40.90021 31156 ft 527 kts 109°
2026-05-09 02:35 23.17660 -40.82310 31160 ft 527 kts 109°
2026-05-09 02:36 23.16011 -40.74534 31161 ft 528 kts 109°
2026-05-09 02:36 23.14355 -40.66740 31158 ft 529 kts 109°
2026-05-09 02:37 23.12693 -40.58943 31164 ft 530 kts 109°
2026-05-09 02:37 23.11023 -40.51125 31160 ft 531 kts 109°
2026-05-09 02:38 23.09349 -40.43308 31160 ft 532 kts 109°
2026-05-09 02:38 23.07668 -40.35477 31159 ft 532 kts 109°
2026-05-09 02:39 23.05986 -40.27662 31156 ft 532 kts 109°
2026-05-09 02:39 23.04307 -40.19878 31155 ft 532 kts 109°
2026-05-09 02:40 23.02616 -40.12060 31159 ft 532 kts 109°
2026-05-09 02:40 23.00918 -40.04226 31159 ft 532 kts 109°
2026-05-09 02:41 22.99077 -39.96460 31160 ft 529 kts 112°
2026-05-09 02:41 22.96931 -39.88836 31160 ft 528 kts 113°
2026-05-09 02:42 22.94741 -39.81223 31160 ft 529 kts 113°
2026-05-09 02:42 22.92569 -39.73595 31160 ft 529 kts 113°
2026-05-09 02:43 22.90414 -39.65969 31159 ft 529 kts 113°
2026-05-09 02:43 22.88257 -39.58330 31157 ft 529 kts 113°
2026-05-09 02:44 22.86096 -39.50701 31158 ft 529 kts 113°
2026-05-09 02:44 22.83944 -39.43123 31153 ft 530 kts 113°
2026-05-09 02:45 22.81770 -39.35486 31161 ft 530 kts 113°
2026-05-09 02:45 22.79590 -39.27842 31156 ft 531 kts 113°
2026-05-09 02:46 22.77407 -39.20202 31160 ft 531 kts 113°
2026-05-09 02:46 22.75216 -39.12550 31161 ft 532 kts 113°
2026-05-09 02:47 22.73050 -39.05000 31160 ft 533 kts 112°
2026-05-09 02:47 22.70841 -38.97314 31156 ft 534 kts 112°
2026-05-09 02:48 22.68627 -38.89628 31158 ft 535 kts 112°
2026-05-09 02:48 22.66420 -38.81980 31160 ft 535 kts 112°
2026-05-09 02:49 22.64194 -38.74282 31161 ft 536 kts 112°
2026-05-09 02:49 22.61963 -38.66581 31160 ft 536 kts 112°
2026-05-09 02:50 22.59729 -38.58884 31155 ft 536 kts 112°
2026-05-09 02:50 22.57491 -38.51189 31154 ft 536 kts 112°
2026-05-09 02:51 22.55250 -38.43498 31157 ft 536 kts 112°
2026-05-09 02:51 22.53002 -38.35800 31157 ft 536 kts 112°
2026-05-09 02:52 22.50751 -38.28107 31158 ft 536 kts 112°
2026-05-09 02:52 22.48497 -38.20418 31157 ft 536 kts 112°
2026-05-09 02:53 22.46240 -38.12734 31152 ft 536 kts 112°
2026-05-09 02:53 22.43993 -38.05096 31154 ft 536 kts 112°
2026-05-09 02:54 22.41729 -37.97417 31156 ft 536 kts 112°
2026-05-09 02:54 22.39463 -37.89745 31153 ft 535 kts 112°
2026-05-09 02:55 22.37194 -37.82082 31154 ft 535 kts 112°
2026-05-09 02:55 22.34923 -37.74421 31157 ft 534 kts 112°
2026-05-09 02:56 22.32650 -37.66773 31151 ft 534 kts 112°
2026-05-09 02:56 22.30379 -37.59143 31165 ft 534 kts 112°
2026-05-09 02:57 22.28118 -37.51564 31147 ft 533 kts 112°
2026-05-09 02:57 22.25839 -37.43936 31146 ft 533 kts 112°
2026-05-09 02:58 22.23562 -37.36329 31156 ft 532 kts 112°
2026-05-09 02:58 22.21280 -37.28723 31153 ft 532 kts 112°
2026-05-09 02:59 22.19000 -37.21134 31152 ft 532 kts 112°
2026-05-09 02:59 22.16714 -37.13540 31152 ft 531 kts 112°
2026-05-09 03:00 22.14445 -37.06017 31148 ft 531 kts 112°
2026-05-09 03:00 22.12151 -36.98429 31148 ft 531 kts 112°
2026-05-09 03:01 22.09871 -36.90897 31150 ft 532 kts 112°
2026-05-09 03:01 22.07558 -36.83269 31150 ft 532 kts 112°
2026-05-09 03:02 22.05250 -36.75675 31145 ft 533 kts 112°
2026-05-09 03:02 22.02955 -36.68135 31144 ft 533 kts 112°
2026-05-09 03:03 22.00638 -36.60537 31153 ft 533 kts 112°
2026-05-09 03:03 21.98319 -36.52946 31147 ft 534 kts 112°
2026-05-09 03:04 21.95988 -36.45334 31149 ft 534 kts 112°
2026-05-09 03:04 21.93657 -36.37730 31148 ft 535 kts 112°
2026-05-09 03:05 21.91334 -36.30170 31148 ft 535 kts 112°
2026-05-09 03:05 21.88989 -36.22548 31149 ft 535 kts 112°
2026-05-09 03:06 21.86642 -36.14938 31152 ft 536 kts 112°
2026-05-09 03:06 21.84292 -36.07331 31148 ft 536 kts 112°
2026-05-09 03:07 21.81933 -35.99705 31149 ft 537 kts 112°
2026-05-09 03:07 21.79583 -35.92126 31149 ft 537 kts 112°
2026-05-09 03:08 21.77212 -35.84494 31149 ft 537 kts 112°
2026-05-09 03:08 21.74839 -35.76865 31145 ft 538 kts 112°
2026-05-09 03:09 21.72463 -35.69241 31146 ft 538 kts 112°
2026-05-09 03:09 21.70083 -35.61618 31148 ft 538 kts 112°
2026-05-09 03:10 21.67697 -35.53993 31144 ft 538 kts 112°
2026-05-09 03:10 21.65713 -35.47660 31143 ft 537 kts 112°
2026-05-09 03:11 21.63324 -35.40047 31140 ft 537 kts 112°
2026-05-09 03:11 21.60931 -35.32437 31145 ft 537 kts 112°
2026-05-09 03:12 21.58538 -35.24839 31142 ft 537 kts 111°
2026-05-09 03:12 21.56138 -35.17234 31144 ft 537 kts 111°
2026-05-09 03:13 21.52553 -35.05897 31140 ft 537 kts 111°
2026-05-09 03:13 21.50145 -34.98296 31143 ft 537 kts 111°
2026-05-09 03:14 21.47739 -34.90718 31142 ft 536 kts 111°
2026-05-09 03:14 21.45328 -34.83137 31140 ft 536 kts 111°
2026-05-09 03:15 21.42913 -34.75557 31141 ft 536 kts 111°
2026-05-09 03:15 21.40499 -34.67991 31142 ft 536 kts 111°
2026-05-09 03:16 21.38080 -34.60424 31141 ft 536 kts 111°
2026-05-09 03:16 21.35657 -34.52858 31140 ft 536 kts 111°
2026-05-09 03:17 21.33285 -34.45463 31141 ft 536 kts 111°
2026-05-09 03:17 21.30855 -34.37903 31164 ft 538 kts 111°
2026-05-09 03:18 21.29628 -34.34093 31353 ft 540 kts 111°
2026-05-09 03:18 21.28406 -34.30297 31712 ft 538 kts 111°
2026-05-09 03:18 21.27188 -34.26514 32063 ft 536 kts 111°
2026-05-09 03:18 21.25970 -34.22738 32357 ft 535 kts 111°
2026-05-09 03:19 21.24752 -34.18965 32616 ft 536 kts 111°
2026-05-09 03:19 21.23533 -34.15194 32874 ft 535 kts 111°
2026-05-09 03:19 21.22315 -34.11426 33060 ft 536 kts 111°
2026-05-09 03:19 21.21089 -34.07642 33100 ft 537 kts 111°
2026-05-09 03:20 21.18646 -34.00102 33132 ft 535 kts 111°
2026-05-09 03:20 21.16205 -33.92583 33137 ft 532 kts 111°
2026-05-09 03:21 21.13787 -33.85147 33139 ft 531 kts 111°
2026-05-09 03:21 21.11352 -33.77672 33137 ft 530 kts 111°
2026-05-09 03:22 21.08917 -33.70210 33137 ft 531 kts 111°
2026-05-09 03:22 21.06479 -33.62751 33137 ft 531 kts 111°
2026-05-09 03:23 21.04032 -33.55277 33139 ft 532 kts 111°
2026-05-09 03:23 21.01581 -33.47803 33140 ft 532 kts 111°
2026-05-09 03:24 20.99124 -33.40323 33140 ft 533 kts 111°
2026-05-09 03:24 20.96679 -33.32890 33140 ft 533 kts 111°
2026-05-09 03:25 20.94215 -33.25415 33135 ft 532 kts 111°
2026-05-09 03:25 20.91751 -33.17949 33134 ft 532 kts 111°
2026-05-09 03:26 20.89287 -33.10495 33138 ft 531 kts 111°
2026-05-09 03:26 20.86822 -33.03052 33134 ft 530 kts 111°
2026-05-09 03:27 20.84359 -32.95629 33133 ft 529 kts 111°
2026-05-09 03:27 20.81897 -32.88218 33133 ft 529 kts 111°
2026-05-09 03:28 20.79430 -32.80806 33131 ft 529 kts 111°
2026-05-09 03:28 20.76980 -32.73455 33127 ft 528 kts 111°
2026-05-09 03:29 20.74511 -32.66060 33130 ft 528 kts 111°
2026-05-09 03:29 20.72042 -32.58677 33130 ft 528 kts 111°
2026-05-09 03:30 20.69569 -32.51294 33129 ft 527 kts 111°
2026-05-09 03:30 20.67095 -32.43918 33125 ft 527 kts 111°
2026-05-09 03:31 20.64618 -32.36546 33128 ft 527 kts 111°
2026-05-09 03:31 20.62137 -32.29175 33127 ft 527 kts 111°
2026-05-09 03:32 20.59656 -32.21814 33127 ft 527 kts 111°
2026-05-09 03:32 20.57172 -32.14456 33125 ft 527 kts 111°
2026-05-09 03:33 20.54684 -32.07097 33122 ft 527 kts 111°
2026-05-09 03:33 20.52210 -31.99792 33122 ft 527 kts 111°
2026-05-09 03:34 20.49720 -31.92449 33122 ft 526 kts 111°
2026-05-09 03:34 20.47227 -31.85109 33122 ft 526 kts 111°
2026-05-09 03:35 20.44734 -31.77778 33123 ft 526 kts 111°
2026-05-09 03:35 20.42605 -31.70332 33124 ft 526 kts 102°
2026-05-09 03:36 20.41586 -31.62607 33128 ft 526 kts 97°
2026-05-09 03:36 20.40750 -31.54864 33116 ft 526 kts 97°
2026-05-09 03:37 20.39880 -31.47127 33121 ft 525 kts 97°
2026-05-09 03:37 20.38982 -31.39451 33120 ft 525 kts 97°
2026-05-09 03:38 20.38065 -31.31725 33118 ft 524 kts 97°
2026-05-09 03:38 20.37147 -31.24012 33117 ft 524 kts 97°
2026-05-09 03:39 20.36229 -31.16312 33118 ft 523 kts 97°
2026-05-09 03:39 20.35309 -31.08619 33116 ft 522 kts 97°
2026-05-09 03:40 20.34388 -31.00945 33120 ft 522 kts 97°
2026-05-09 03:40 20.33464 -30.93275 33119 ft 521 kts 97°
2026-05-09 03:41 20.32539 -30.85619 33116 ft 521 kts 97°
2026-05-09 03:41 20.31610 -30.77968 33119 ft 520 kts 97°
2026-05-09 03:42 20.30685 -30.70376 33117 ft 520 kts 97°
2026-05-09 03:42 20.29751 -30.62733 33123 ft 520 kts 97°
2026-05-09 03:43 20.28814 -30.55097 33126 ft 520 kts 97°
2026-05-09 03:43 20.27873 -30.47459 33119 ft 520 kts 97°
2026-05-09 03:44 20.26929 -30.39823 33120 ft 520 kts 97°
2026-05-09 03:44 20.25981 -30.32174 33119 ft 520 kts 97°
2026-05-09 03:45 20.25030 -30.24537 33118 ft 520 kts 97°
2026-05-09 03:45 20.24075 -30.16894 33120 ft 521 kts 98°
2026-05-09 03:46 20.23122 -30.09296 33117 ft 521 kts 98°
2026-05-09 03:46 20.22159 -30.01642 33117 ft 521 kts 98°
2026-05-09 03:47 20.21204 -29.94084 33119 ft 521 kts 98°
2026-05-09 03:47 20.20234 -29.86427 33117 ft 522 kts 98°
2026-05-09 03:48 20.19260 -29.78772 33115 ft 522 kts 98°
2026-05-09 03:48 20.18288 -29.71157 33116 ft 522 kts 98°
2026-05-09 03:49 20.17307 -29.63493 33116 ft 522 kts 98°
2026-05-09 03:49 20.16322 -29.55829 33116 ft 523 kts 98°
2026-05-09 03:50 20.15331 -29.48153 33116 ft 523 kts 98°
2026-05-09 03:50 20.14339 -29.40482 33114 ft 523 kts 98°
2026-05-09 03:51 20.13343 -29.32814 33116 ft 523 kts 99°
2026-05-09 03:51 20.12343 -29.25142 33113 ft 523 kts 99°
2026-05-09 03:52 20.11340 -29.17475 33116 ft 523 kts 99°
2026-05-09 03:52 20.10338 -29.09837 33115 ft 523 kts 99°
2026-05-09 03:53 20.09327 -29.02163 33116 ft 524 kts 99°
2026-05-09 03:53 20.08314 -28.94491 33113 ft 523 kts 99°
2026-05-09 03:54 20.07297 -28.86821 33113 ft 523 kts 99°
2026-05-09 03:54 20.06277 -28.79155 33115 ft 523 kts 99°
2026-05-09 03:55 20.05254 -28.71490 33107 ft 523 kts 99°
2026-05-09 03:55 20.04227 -28.63823 33114 ft 523 kts 99°
2026-05-09 03:56 20.03197 -28.56158 33113 ft 523 kts 99°
2026-05-09 03:56 20.02172 -28.48551 33108 ft 523 kts 99°
2026-05-09 03:57 20.01137 -28.40898 33111 ft 523 kts 99°
2026-05-09 03:57 20.00098 -28.33242 33110 ft 523 kts 99°
2026-05-09 03:58 19.99057 -28.25596 33110 ft 522 kts 99°
2026-05-09 03:58 19.98189 -28.19242 33105 ft 522 kts 99°
2026-05-09 03:59 19.97142 -28.11600 33105 ft 522 kts 99°
2026-05-09 03:59 19.96092 -28.03955 33103 ft 522 kts 99°
2026-05-09 04:00 19.95053 -27.96419 33105 ft 522 kts 99°
2026-05-09 04:00 19.93995 -27.88771 33105 ft 522 kts 99°
2026-05-09 04:01 19.92936 -27.81139 33104 ft 522 kts 99°
2026-05-09 04:01 19.91873 -27.73502 33101 ft 522 kts 100°
2026-05-09 04:02 19.90806 -27.65867 33100 ft 522 kts 100°
2026-05-09 04:02 19.89737 -27.58233 33105 ft 523 kts 100°
2026-05-09 04:03 19.88669 -27.50634 33106 ft 523 kts 100°
2026-05-09 04:03 19.87592 -27.42990 33093 ft 523 kts 100°
2026-05-09 04:04 19.86511 -27.35349 33100 ft 523 kts 100°
2026-05-09 04:04 19.85429 -27.27722 33096 ft 522 kts 100°
2026-05-09 04:05 19.84350 -27.20134 33097 ft 522 kts 100°
2026-05-09 04:05 19.83262 -27.12517 33093 ft 521 kts 100°
2026-05-09 04:06 19.82171 -27.04899 33091 ft 521 kts 100°
2026-05-09 04:06 19.81080 -26.97303 33089 ft 520 kts 100°
2026-05-09 04:07 19.79991 -26.89747 33090 ft 520 kts 100°
2026-05-09 04:07 19.78892 -26.82142 33089 ft 520 kts 100°
2026-05-09 04:08 19.77793 -26.74561 33088 ft 520 kts 100°
2026-05-09 04:08 19.76690 -26.66972 33088 ft 520 kts 100°
2026-05-09 04:09 19.75584 -26.59391 33090 ft 520 kts 100°
2026-05-09 04:09 19.74476 -26.51816 33085 ft 519 kts 100°
2026-05-09 04:10 19.73365 -26.44243 33087 ft 519 kts 100°
2026-05-09 04:10 19.72257 -26.36717 33084 ft 519 kts 100°
2026-05-09 04:11 19.71140 -26.29148 33085 ft 519 kts 100°
2026-05-09 04:11 19.70019 -26.21578 33081 ft 519 kts 100°
2026-05-09 04:12 19.68896 -26.14013 33084 ft 519 kts 100°
2026-05-09 04:12 19.67770 -26.06452 33087 ft 518 kts 100°
2026-05-09 04:13 19.66642 -25.98900 33081 ft 518 kts 100°
2026-05-09 04:13 19.65512 -25.91356 33080 ft 518 kts 100°
2026-05-09 04:14 19.64378 -25.83810 33084 ft 518 kts 100°
2026-05-09 04:14 19.63249 -25.76316 33082 ft 517 kts 99°
2026-05-09 04:15 19.62111 -25.68785 33076 ft 517 kts 99°
2026-05-09 04:15 19.60969 -25.61249 33082 ft 517 kts 99°
2026-05-09 04:16 19.59824 -25.53718 33080 ft 517 kts 99°
2026-05-09 04:16 19.58678 -25.46198 33079 ft 517 kts 99°
2026-05-09 04:17 19.57527 -25.38672 33082 ft 517 kts 99°
2026-05-09 04:17 19.56375 -25.31159 33078 ft 516 kts 99°
2026-05-09 04:18 19.55219 -25.23637 33080 ft 516 kts 99°
2026-05-09 04:18 19.54061 -25.16126 33077 ft 516 kts 99°
2026-05-09 04:19 19.52900 -25.08617 33081 ft 516 kts 99°
2026-05-09 04:19 19.51744 -25.01160 33054 ft 516 kts 100°
2026-05-09 04:20 19.50578 -24.93659 33077 ft 516 kts 100°
2026-05-09 04:20 19.49407 -24.86151 33081 ft 516 kts 100°
2026-05-09 04:21 19.48232 -24.78637 33079 ft 517 kts 100°
2026-05-09 04:22 19.46468 -24.67392 33077 ft 518 kts 100°
2026-05-09 04:22 19.45282 -24.59862 33073 ft 518 kts 100°
2026-05-09 04:23 19.44095 -24.52338 33074 ft 518 kts 100°
2026-05-09 04:23 19.42903 -24.44811 33074 ft 518 kts 100°
2026-05-09 04:24 19.41710 -24.37297 33071 ft 517 kts 100°
2026-05-09 04:24 19.40514 -24.29779 33072 ft 517 kts 100°
2026-05-09 04:25 19.39315 -24.22265 33071 ft 517 kts 100°
2026-05-09 04:25 19.38113 -24.14757 33068 ft 517 kts 100°
2026-05-09 04:26 19.36908 -24.07251 33069 ft 516 kts 101°
2026-05-09 04:26 19.35702 -23.99753 33070 ft 516 kts 100°
2026-05-09 04:27 19.34493 -23.92259 33064 ft 516 kts 101°
2026-05-09 04:27 19.33288 -23.84812 33064 ft 516 kts 101°
2026-05-09 04:28 19.32072 -23.77317 33063 ft 517 kts 101°
2026-05-09 04:28 19.30853 -23.69822 33066 ft 517 kts 101°
2026-05-09 04:29 19.29630 -23.62318 33065 ft 517 kts 101°
2026-05-09 04:29 19.28405 -23.54829 33060 ft 517 kts 101°
2026-05-09 04:30 19.27176 -23.47329 33061 ft 517 kts 101°
2026-05-09 04:30 19.25946 -23.39846 33060 ft 517 kts 101°
2026-05-09 04:31 19.24712 -23.32356 33060 ft 517 kts 101°
2026-05-09 04:31 19.23475 -23.24875 33058 ft 516 kts 101°
2026-05-09 04:32 19.22235 -23.17387 33054 ft 516 kts 101°
2026-05-09 04:32 19.21003 -23.09967 33060 ft 516 kts 101°
2026-05-09 04:33 19.19758 -23.02493 33061 ft 516 kts 101°
2026-05-09 04:33 19.18510 -22.95017 33061 ft 516 kts 101°
2026-05-09 04:34 19.17261 -22.87554 33058 ft 516 kts 101°
2026-05-09 04:34 19.16008 -22.80089 33058 ft 516 kts 101°
2026-05-09 04:35 19.14753 -22.72632 33054 ft 516 kts 101°
2026-05-09 04:35 19.13498 -22.65186 33053 ft 516 kts 101°
2026-05-09 04:36 19.12248 -22.57793 33051 ft 516 kts 101°
2026-05-09 04:36 19.10982 -22.50330 33051 ft 516 kts 101°
2026-05-09 04:37 19.09718 -22.42891 33052 ft 516 kts 101°
2026-05-09 04:37 19.08449 -22.35442 33051 ft 516 kts 101°
2026-05-09 04:38 19.07179 -22.28005 33050 ft 515 kts 101°
2026-05-09 04:38 19.05906 -22.20575 33050 ft 515 kts 101°
2026-05-09 04:39 19.04631 -22.13146 33051 ft 515 kts 101°
2026-05-09 04:39 19.03352 -22.05714 33051 ft 515 kts 101°
2026-05-09 04:40 19.02080 -21.98338 33052 ft 515 kts 101°
2026-05-09 04:40 19.00798 -21.90926 33047 ft 515 kts 101°
2026-05-09 04:41 18.99511 -21.83500 33049 ft 515 kts 101°
2026-05-09 04:41 18.98221 -21.76079 33044 ft 515 kts 101°
2026-05-09 04:42 18.96927 -21.68649 33046 ft 515 kts 101°
2026-05-09 04:42 18.95647 -21.61322 33045 ft 515 kts 101°
2026-05-09 04:43 18.94346 -21.53893 33042 ft 515 kts 101°
2026-05-09 04:43 18.93047 -21.46488 33042 ft 515 kts 101°
2026-05-09 04:44 18.91745 -21.39084 33043 ft 514 kts 101°
2026-05-09 04:44 18.90441 -21.31691 33043 ft 514 kts 101°
2026-05-09 04:45 18.89135 -21.24303 33044 ft 514 kts 101°
2026-05-09 04:45 18.87825 -21.16908 33044 ft 514 kts 101°
2026-05-09 04:46 18.86514 -21.09524 33044 ft 514 kts 101°
2026-05-09 04:46 18.85424 -21.03401 33042 ft 514 kts 101°
2026-05-09 04:47 18.83912 -20.94926 33044 ft 514 kts 101°
2026-05-09 04:47 18.82594 -20.87558 33042 ft 514 kts 101°
2026-05-09 04:48 18.81271 -20.80176 33038 ft 514 kts 101°
2026-05-09 04:48 18.80156 -20.73967 33038 ft 514 kts 101°
2026-05-09 04:49 18.78846 -20.66695 33039 ft 513 kts 102°
2026-05-09 04:49 18.77519 -20.59338 33037 ft 513 kts 102°
2026-05-09 04:50 18.76188 -20.51980 33048 ft 513 kts 102°
2026-05-09 04:50 18.74853 -20.44619 33033 ft 513 kts 102°
2026-05-09 04:51 18.73520 -20.37279 33030 ft 513 kts 102°
2026-05-09 04:51 18.72173 -20.29885 33028 ft 513 kts 102°
2026-05-09 04:52 18.70833 -20.22545 33039 ft 512 kts 102°
2026-05-09 04:52 18.69498 -20.15248 33038 ft 512 kts 102°
2026-05-09 04:53 18.68160 -20.07945 33030 ft 512 kts 102°
2026-05-09 04:53 18.66822 -20.00612 33031 ft 512 kts 100°
2026-05-09 04:54 18.66044 -19.93201 33024 ft 512 kts 95°
2026-05-09 04:54 18.65486 -19.85829 33025 ft 513 kts 95°
2026-05-09 04:55 18.64901 -19.78292 33018 ft 513 kts 95°
2026-05-09 04:55 18.64290 -19.70849 33023 ft 513 kts 95°
2026-05-09 04:56 18.63665 -19.63411 33024 ft 513 kts 96°
2026-05-09 04:56 18.63036 -19.55971 33014 ft 514 kts 96°
2026-05-09 04:57 18.62410 -19.48584 33029 ft 514 kts 96°
2026-05-09 04:57 18.61782 -19.41189 33022 ft 513 kts 96°
2026-05-09 04:58 18.61142 -19.33696 33028 ft 513 kts 96°
2026-05-09 04:58 18.60505 -19.26261 33027 ft 513 kts 96°
2026-05-09 04:59 18.59864 -19.18827 33011 ft 513 kts 96°
2026-05-09 04:59 18.59220 -19.11389 33009 ft 512 kts 96°
2026-05-09 05:00 18.58579 -19.04012 33015 ft 512 kts 96°
2026-05-09 05:00 18.57931 -18.96599 33023 ft 513 kts 96°
2026-05-09 05:01 18.57277 -18.89146 33008 ft 513 kts 96°
2026-05-09 05:01 18.56620 -18.81690 33020 ft 514 kts 96°
2026-05-09 05:02 18.55962 -18.74256 33014 ft 514 kts 96°
2026-05-09 05:02 18.55301 -18.66829 33015 ft 514 kts 96°
2026-05-09 05:03 18.54636 -18.59389 33021 ft 514 kts 96°
2026-05-09 05:03 18.53979 -18.52064 33007 ft 515 kts 96°
2026-05-09 05:04 18.53307 -18.44617 33013 ft 515 kts 96°
2026-05-09 05:04 18.52626 -18.37099 33001 ft 515 kts 96°
2026-05-09 05:05 18.51951 -18.29666 33002 ft 515 kts 96°
2026-05-09 05:05 18.51272 -18.22235 33009 ft 515 kts 96°
2026-05-09 05:06 18.50590 -18.14803 33003 ft 514 kts 96°
2026-05-09 05:06 18.49906 -18.07380 33007 ft 514 kts 96°
2026-05-09 05:07 18.49219 -17.99951 33004 ft 514 kts 96°
2026-05-09 05:07 18.48524 -17.92471 32999 ft 514 kts 96°
2026-05-09 05:08 18.47835 -17.85094 33001 ft 515 kts 96°
2026-05-09 05:08 18.47140 -17.77677 33000 ft 515 kts 96°
2026-05-09 05:09 18.46441 -17.70250 33005 ft 515 kts 96°
2026-05-09 05:09 18.45747 -17.62908 32998 ft 516 kts 96°
2026-05-09 05:10 18.45042 -17.55478 32992 ft 516 kts 96°
2026-05-09 05:10 18.44333 -17.48037 32993 ft 516 kts 96°
2026-05-09 05:11 18.43617 -17.40556 32991 ft 516 kts 96°
2026-05-09 05:11 18.42903 -17.33124 32992 ft 516 kts 96°
2026-05-09 05:12 18.42186 -17.25692 32990 ft 517 kts 96°
2026-05-09 05:12 18.41063 -17.18331 32980 ft 515 kts 105°
2026-05-09 05:13 18.39204 -17.11138 32980 ft 515 kts 107°
2026-05-09 05:13 18.37345 -17.04075 32972 ft 514 kts 107°
2026-05-09 05:14 18.35471 -16.96810 32971 ft 514 kts 106°
2026-05-09 05:14 18.33646 -16.89645 32970 ft 514 kts 106°
2026-05-09 05:15 18.31836 -16.82539 32971 ft 513 kts 106°
2026-05-09 05:15 18.30008 -16.75380 32969 ft 512 kts 106°
2026-05-09 05:16 18.28207 -16.68345 32964 ft 512 kts 106°
2026-05-09 05:16 18.26352 -16.61116 32960 ft 511 kts 106°
2026-05-09 05:17 18.24523 -16.53997 32953 ft 511 kts 106°
2026-05-09 05:17 18.22721 -16.46996 32954 ft 512 kts 106°
2026-05-09 05:18 18.20884 -16.39867 32955 ft 512 kts 106°
2026-05-09 05:18 18.19070 -16.32843 32957 ft 512 kts 106°
2026-05-09 05:19 18.17212 -16.25656 32952 ft 513 kts 106°
2026-05-09 05:19 18.15367 -16.18531 32945 ft 513 kts 106°
2026-05-09 05:20 18.13517 -16.11399 32934 ft 513 kts 107°
2026-05-09 05:20 18.11692 -16.04373 32938 ft 513 kts 107°
2026-05-09 05:21 18.09669 -15.97327 32939 ft 511 kts 113°
2026-05-09 05:21 18.06541 -15.90648 32943 ft 508 kts 123°
2026-05-09 05:22 18.02713 -15.84749 32937 ft 507 kts 127°
2026-05-09 05:22 17.98725 -15.78795 32939 ft 506 kts 127°
2026-05-09 05:23 17.94769 -15.72825 32936 ft 506 kts 126°
2026-05-09 05:23 17.90841 -15.66852 32935 ft 506 kts 126°
2026-05-09 05:24 17.86979 -15.60975 32929 ft 506 kts 126°
2026-05-09 05:24 17.83052 -15.55009 32933 ft 505 kts 126°
2026-05-09 05:25 17.79057 -15.48948 32921 ft 505 kts 127°
2026-05-09 05:25 17.73214 -15.40092 32917 ft 505 kts 127°
2026-05-09 05:26 17.69349 -15.34240 32919 ft 505 kts 127°
2026-05-09 05:26 17.65418 -15.28292 32918 ft 506 kts 127°
2026-05-09 05:27 17.61504 -15.22373 32914 ft 507 kts 127°
2026-05-09 05:27 17.57559 -15.16398 32917 ft 508 kts 127°
2026-05-09 05:28 17.53686 -15.10534 32917 ft 509 kts 128°
2026-05-09 05:28 17.49642 -15.04418 32914 ft 510 kts 128°
2026-05-09 05:29 17.45702 -14.98465 32914 ft 512 kts 128°
2026-05-09 05:29 17.41801 -14.92576 32906 ft 513 kts 128°
2026-05-09 05:30 17.37727 -14.86431 32903 ft 514 kts 129°
2026-05-09 05:30 17.33806 -14.80521 32900 ft 514 kts 129°
2026-05-09 05:31 17.29798 -14.74486 32901 ft 515 kts 129°
2026-05-09 05:31 17.25795 -14.68463 32894 ft 515 kts 129°
2026-05-09 05:32 17.21789 -14.62440 32896 ft 515 kts 129°
2026-05-09 05:32 17.17887 -14.56586 32895 ft 515 kts 130°
2026-05-09 05:33 17.13808 -14.50490 32889 ft 515 kts 130°
2026-05-09 05:33 17.09867 -14.44605 32894 ft 515 kts 130°
2026-05-09 05:34 17.05840 -14.38592 32888 ft 516 kts 130°
2026-05-09 05:34 17.01821 -14.32595 32892 ft 516 kts 130°
2026-05-09 05:35 16.97794 -14.26591 32884 ft 516 kts 130°
2026-05-09 05:35 16.93865 -14.20738 32886 ft 516 kts 130°
2026-05-09 05:36 16.90441 -14.15641 32882 ft 516 kts 130°
2026-05-09 05:36 16.86505 -14.09785 32887 ft 515 kts 130°
2026-05-09 05:37 16.82484 -14.03813 32877 ft 515 kts 130°
2026-05-09 05:37 16.78386 -13.97733 32880 ft 515 kts 130°
2026-05-09 05:38 16.74471 -13.91926 32878 ft 515 kts 130°
2026-05-09 05:38 16.70436 -13.85946 32878 ft 515 kts 130°
2026-05-09 05:39 16.66414 -13.79989 32876 ft 515 kts 130°
2026-05-09 05:39 16.62390 -13.74033 32872 ft 515 kts 130°
2026-05-09 05:40 16.58459 -13.68221 32866 ft 515 kts 130°
2026-05-09 05:40 16.54356 -13.62160 32881 ft 514 kts 130°
2026-05-09 05:41 16.50450 -13.56394 32864 ft 514 kts 130°
2026-05-09 05:41 16.46435 -13.50471 32868 ft 514 kts 130°
2026-05-09 05:42 16.42421 -13.44553 32881 ft 513 kts 130°
2026-05-09 05:42 16.38405 -13.38641 32875 ft 513 kts 130°
2026-05-09 05:43 16.34503 -13.32899 32871 ft 513 kts 130°
2026-05-09 05:43 16.30411 -13.26878 32868 ft 512 kts 130°
2026-05-09 05:44 16.26517 -13.21153 32877 ft 512 kts 130°
2026-05-09 05:44 16.22515 -13.15273 32867 ft 512 kts 129°
2026-05-09 05:45 16.18507 -13.09390 32864 ft 511 kts 129°
2026-05-09 05:45 16.14513 -13.03533 32868 ft 511 kts 129°
2026-05-09 05:46 16.10632 -12.97845 32867 ft 510 kts 129°
2026-05-09 05:46 16.06525 -12.91831 32866 ft 510 kts 129°
2026-05-09 05:47 16.02535 -12.85993 32869 ft 509 kts 129°
2026-05-09 05:47 15.98745 -12.80452 32867 ft 509 kts 129°
2026-05-09 05:48 15.94643 -12.74460 32869 ft 509 kts 129°
2026-05-09 05:48 15.90796 -12.68844 32866 ft 509 kts 129°
2026-05-09 05:49 15.86818 -12.63042 32862 ft 508 kts 129°
2026-05-09 05:49 15.82849 -12.57257 32864 ft 508 kts 129°
2026-05-09 05:50 15.78862 -12.51451 32863 ft 508 kts 129°
2026-05-09 05:50 15.75028 -12.45871 32863 ft 507 kts 129°
2026-05-09 05:51 15.70926 -12.39906 32858 ft 507 kts 129°
2026-05-09 05:51 15.67094 -12.34337 32857 ft 507 kts 129°
2026-05-09 05:52 15.63122 -12.28568 32853 ft 507 kts 129°
2026-05-09 05:52 15.59176 -12.22843 32854 ft 507 kts 129°
2026-05-09 05:53 15.55200 -12.17095 32854 ft 507 kts 129°
2026-05-09 05:53 15.51361 -12.11553 32856 ft 506 kts 129°
2026-05-09 05:54 15.47252 -12.05622 32852 ft 506 kts 129°
2026-05-09 05:54 15.43282 -11.99893 32851 ft 505 kts 129°
2026-05-09 05:55 15.39459 -11.94382 32850 ft 504 kts 129°
2026-05-09 05:55 15.35371 -11.88491 32850 ft 503 kts 129°
2026-05-09 05:56 15.31572 -11.83020 32851 ft 503 kts 129°
2026-05-09 05:56 15.27563 -11.77251 32852 ft 503 kts 129°
2026-05-09 05:57 15.23696 -11.71678 32854 ft 503 kts 129°
2026-05-09 05:57 15.19747 -11.65988 32853 ft 503 kts 129°
2026-05-09 05:58 15.15830 -11.60347 32856 ft 504 kts 129°
2026-05-09 05:58 15.11880 -11.54665 32854 ft 504 kts 129°
2026-05-09 05:59 15.07928 -11.48984 32859 ft 505 kts 129°
2026-05-09 05:59 15.03817 -11.43078 32858 ft 506 kts 129°
2026-05-09 06:00 15.00071 -11.37701 32858 ft 506 kts 129°
2026-05-09 06:00 14.96101 -11.32007 32858 ft 506 kts 129°
2026-05-09 06:01 14.92158 -11.26355 32860 ft 507 kts 129°
2026-05-09 06:01 14.88188 -11.20668 32854 ft 507 kts 129°
2026-05-09 06:02 14.84208 -11.14970 32853 ft 507 kts 129°
2026-05-09 06:02 14.80238 -11.09290 32861 ft 507 kts 129°
2026-05-09 06:03 14.76270 -11.03617 32867 ft 507 kts 129°
2026-05-09 06:03 14.72440 -10.98147 32861 ft 508 kts 129°
2026-05-09 06:04 14.68318 -10.92279 32863 ft 508 kts 129°
2026-05-09 06:04 14.64487 -10.86832 32867 ft 508 kts 129°
2026-05-09 06:05 14.60336 -10.80930 32867 ft 508 kts 129°
2026-05-09 06:05 14.56515 -10.75498 32875 ft 508 kts 129°
2026-05-09 06:06 14.52531 -10.69838 32878 ft 508 kts 129°
2026-05-09 06:06 14.48574 -10.64220 32880 ft 508 kts 129°
2026-05-09 06:07 14.44584 -10.58561 32883 ft 507 kts 129°
2026-05-09 06:07 14.40769 -10.53153 32880 ft 507 kts 129°
2026-05-09 06:08 14.36626 -10.47284 32889 ft 506 kts 129°
2026-05-09 06:08 14.32742 -10.41786 32887 ft 505 kts 129°
2026-05-09 06:09 14.28870 -10.36310 32891 ft 504 kts 129°
2026-05-09 06:09 14.24737 -10.30467 32893 ft 503 kts 129°
2026-05-09 06:10 14.20969 -10.25143 32895 ft 503 kts 129°
2026-05-09 06:10 14.16868 -10.19353 32902 ft 502 kts 129°
2026-05-09 06:11 14.13120 -10.14066 32899 ft 502 kts 129°
2026-05-09 06:11 14.09193 -10.08529 32903 ft 501 kts 129°
2026-05-09 06:12 14.05257 -10.02982 32905 ft 501 kts 129°
2026-05-09 06:12 14.01328 -9.97447 32908 ft 501 kts 129°
2026-05-09 06:13 13.97608 -9.92203 32904 ft 501 kts 129°
2026-05-09 06:13 13.93502 -9.86414 32907 ft 500 kts 128°
2026-05-09 06:14 13.89787 -9.81179 32913 ft 500 kts 128°
2026-05-09 06:14 13.85712 -9.75442 32915 ft 499 kts 128°
2026-05-09 06:15 13.81797 -9.69933 32921 ft 499 kts 128°
2026-05-09 06:15 13.78074 -9.64698 32922 ft 499 kts 128°
2026-05-09 06:16 13.73977 -9.58946 32922 ft 499 kts 128°
2026-05-09 06:16 13.70272 -9.53748 32926 ft 499 kts 128°
2026-05-09 06:17 13.66357 -9.48256 32934 ft 499 kts 128°
2026-05-09 06:17 13.62434 -9.42755 32931 ft 499 kts 128°
2026-05-09 06:18 13.58551 -9.37313 32933 ft 499 kts 128°
2026-05-09 06:18 13.54632 -9.31824 32934 ft 500 kts 128°
2026-05-09 06:19 13.50705 -9.26328 32932 ft 500 kts 128°
2026-05-09 06:19 13.47003 -9.21150 32933 ft 500 kts 128°
2026-05-09 06:20 13.42887 -9.15396 32934 ft 500 kts 128°
2026-05-09 06:20 13.38973 -9.09928 32935 ft 499 kts 128°
2026-05-09 06:21 13.35766 -9.05451 32933 ft 499 kts 128°
2026-05-09 06:21 13.31168 -8.99034 32936 ft 498 kts 128°
2026-05-09 06:22 13.28178 -8.94866 32930 ft 497 kts 128°
2026-05-09 06:22 13.24084 -8.89161 32933 ft 496 kts 128°
2026-05-09 06:23 13.20421 -8.84058 32932 ft 496 kts 128°
2026-05-09 06:23 13.16364 -8.78411 32934 ft 495 kts 128°
2026-05-09 06:24 13.12671 -8.73274 33188 ft 497 kts 128°
2026-05-09 06:24 13.10621 -8.70423 33609 ft 494 kts 128°
2026-05-09 06:24 13.08801 -8.67893 33984 ft 491 kts 128°
2026-05-09 06:25 13.06776 -8.65078 34317 ft 489 kts 128°
2026-05-09 06:25 13.04756 -8.62271 34608 ft 488 kts 128°
2026-05-09 06:25 13.03191 -8.60097 34802 ft 488 kts 128°
2026-05-09 06:25 13.01164 -8.57283 34867 ft 490 kts 128°
2026-05-09 06:26 12.97391 -8.52047 34928 ft 489 kts 128°
2026-05-09 06:26 12.93521 -8.46680 34927 ft 487 kts 128°
2026-05-09 06:27 12.89720 -8.41411 34934 ft 485 kts 128°
2026-05-09 06:27 12.85921 -8.36148 34940 ft 485 kts 128°
2026-05-09 06:28 12.82135 -8.30905 34932 ft 485 kts 128°
2026-05-09 06:28 12.78367 -8.25691 34938 ft 486 kts 128°
2026-05-09 06:29 12.74538 -8.20398 34942 ft 487 kts 128°
2026-05-09 06:29 12.70789 -8.15213 34941 ft 487 kts 128°
2026-05-09 06:30 12.66981 -8.09954 34940 ft 488 kts 128°
2026-05-09 06:30 12.63169 -8.04686 34938 ft 488 kts 128°
2026-05-09 06:31 12.59356 -7.99422 34936 ft 487 kts 128°
2026-05-09 06:31 12.55315 -7.94406 34937 ft 484 kts 137°
2026-05-09 06:32 12.50740 -7.90535 34938 ft 481 kts 148°
2026-05-09 06:33 12.42546 -7.85555 34941 ft 479 kts 151°
2026-05-09 06:33 12.36795 -7.82142 34942 ft 478 kts 150°
2026-05-09 06:34 12.28888 -7.77386 34946 ft 478 kts 150°
2026-05-09 06:34 12.23493 -7.74122 34952 ft 478 kts 150°
2026-05-09 06:35 12.18462 -7.71077 34953 ft 479 kts 150°
2026-05-09 06:35 12.12722 -7.67609 34958 ft 480 kts 150°
2026-05-09 06:36 12.07320 -7.64347 34956 ft 481 kts 150°
2026-05-09 06:36 12.01891 -7.61072 34960 ft 481 kts 150°
2026-05-09 06:37 11.96512 -7.57828 34964 ft 482 kts 150°
2026-05-09 06:37 11.91432 -7.54764 34966 ft 482 kts 150°
2026-05-09 06:38 11.85654 -7.51282 34966 ft 482 kts 150°
2026-05-09 06:38 11.80228 -7.48014 34964 ft 482 kts 150°
2026-05-09 06:39 11.75177 -7.44972 34965 ft 482 kts 150°
2026-05-09 06:39 11.69392 -7.41491 34967 ft 481 kts 150°
2026-05-09 06:40 11.63981 -7.38236 34963 ft 481 kts 150°
2026-05-09 06:40 11.58683 -7.35051 34966 ft 481 kts 150°
2026-05-09 06:41 11.53156 -7.31729 34966 ft 481 kts 150°
2026-05-09 06:41 11.48096 -7.28689 34967 ft 482 kts 150°
2026-05-09 06:42 11.42348 -7.25238 34970 ft 483 kts 150°
2026-05-09 06:42 11.36929 -7.21985 34969 ft 484 kts 150°
2026-05-09 06:43 11.31901 -7.18969 34970 ft 485 kts 150°
2026-05-09 06:43 11.26073 -7.15474 34971 ft 486 kts 150°
2026-05-09 06:44 11.20628 -7.12210 34972 ft 488 kts 150°
2026-05-09 06:44 11.15600 -7.09198 34973 ft 488 kts 150°
2026-05-09 06:45 11.09704 -7.05666 34968 ft 489 kts 150°
2026-05-09 06:45 11.04654 -7.02644 34972 ft 489 kts 150°
2026-05-09 06:46 10.98814 -6.99148 34973 ft 489 kts 150°
2026-05-09 06:46 10.93349 -6.95879 34967 ft 489 kts 150°
2026-05-09 06:47 10.88334 -6.92880 34969 ft 489 kts 150°
2026-05-09 06:47 10.83018 -6.88675 34967 ft 489 kts 126°
2026-05-09 06:48 10.81386 -6.85640 34971 ft 490 kts 109°
2026-05-09 06:48 10.80709 -6.83223 34985 ft 491 kts 100°
2026-05-09 06:48 10.80436 -6.79751 34957 ft 493 kts 85°
2026-05-09 06:48 10.80884 -6.76295 34987 ft 494 kts 81°
2026-05-09 06:49 10.81930 -6.69844 34981 ft 501 kts 81°
2026-05-09 06:49 10.82947 -6.63351 34972 ft 503 kts 81°
2026-05-09 06:50 10.83899 -6.56822 34966 ft 502 kts 82°
2026-05-09 06:50 10.84728 -6.50947 34960 ft 500 kts 82°
2026-05-09 06:51 10.85728 -6.43843 34958 ft 497 kts 82°
2026-05-09 06:51 10.86635 -6.37419 34954 ft 493 kts 82°
2026-05-09 06:52 10.87537 -6.31035 34962 ft 490 kts 82°
2026-05-09 06:52 10.88506 -6.24165 34968 ft 490 kts 82°
2026-05-09 06:53 10.89402 -6.17799 34965 ft 491 kts 82°
2026-05-09 06:53 10.90301 -6.11409 34971 ft 492 kts 82°
2026-05-09 06:54 10.91198 -6.05016 34971 ft 494 kts 82°
2026-05-09 06:54 10.92163 -5.98131 34973 ft 495 kts 82°
2026-05-09 06:55 10.93063 -5.91692 34973 ft 496 kts 82°
2026-05-09 06:55 10.93964 -5.85241 34972 ft 497 kts 82°
2026-05-09 06:56 10.94789 -5.79322 34975 ft 497 kts 82°
2026-05-09 06:56 10.95751 -5.72413 34975 ft 496 kts 82°
2026-05-09 06:57 10.96644 -5.65988 34978 ft 495 kts 82°
2026-05-09 06:57 10.97534 -5.59578 34976 ft 494 kts 82°
2026-05-09 06:58 10.98416 -5.53212 34975 ft 493 kts 81°
2026-05-09 06:58 10.99377 -5.46263 34978 ft 493 kts 81°
2026-05-09 06:59 11.00255 -5.39905 34980 ft 492 kts 82°
2026-05-09 06:59 11.01129 -5.33562 34981 ft 491 kts 81°
2026-05-09 07:00 11.01916 -5.27835 34982 ft 491 kts 81°
2026-05-09 07:00 11.02877 -5.20829 34982 ft 491 kts 81°
2026-05-09 07:01 11.03738 -5.14545 34979 ft 491 kts 81°
2026-05-09 07:01 11.04604 -5.08206 34982 ft 491 kts 81°
2026-05-09 07:02 11.05546 -5.01305 34977 ft 491 kts 81°
2026-05-09 07:02 11.06409 -4.94975 34979 ft 492 kts 82°
2026-05-09 07:03 11.07273 -4.88628 34980 ft 492 kts 82°
2026-05-09 07:03 11.08135 -4.82281 34975 ft 492 kts 82°
2026-05-09 07:04 11.09071 -4.75380 34975 ft 492 kts 82°
2026-05-09 07:04 11.09924 -4.69079 34976 ft 492 kts 82°
2026-05-09 07:05 11.10784 -4.62710 34980 ft 492 kts 82°
2026-05-09 07:05 11.11491 -4.57479 34984 ft 492 kts 82°
2026-05-09 07:06 11.12499 -4.49994 34988 ft 492 kts 82°
2026-05-09 07:06 11.13353 -4.43644 34992 ft 491 kts 82°
2026-05-09 07:07 11.13882 -4.37315 34985 ft 489 kts 94°
2026-05-09 07:07 11.12450 -4.30593 34996 ft 487 kts 112°
2026-05-09 07:08 11.09743 -4.24926 35000 ft 486 kts 117°
2026-05-09 07:08 11.07435 -4.20326 34988 ft 486 kts 117°
2026-05-09 07:09 11.04648 -4.14674 34984 ft 485 kts 116°
2026-05-09 07:09 11.01914 -4.09028 34979 ft 485 kts 116°
2026-05-09 07:10 10.99211 -4.03419 34969 ft 484 kts 116°
2026-05-09 07:10 10.96493 -3.97784 34969 ft 483 kts 116°
2026-05-09 07:11 10.93796 -3.92204 34969 ft 483 kts 116°
2026-05-09 07:11 10.90901 -3.86218 34970 ft 481 kts 117°
2026-05-09 07:12 10.88375 -3.80996 34968 ft 480 kts 117°
2026-05-09 07:12 10.85680 -3.75436 34965 ft 479 kts 117°
2026-05-09 07:13 10.82735 -3.69361 34966 ft 478 kts 117°
2026-05-09 07:13 10.80310 -3.64362 34967 ft 478 kts 117°
2026-05-09 07:14 10.77631 -3.58839 34967 ft 477 kts 117°
2026-05-09 07:14 10.74710 -3.52821 34965 ft 477 kts 117°
2026-05-09 07:15 10.72291 -3.47840 34962 ft 477 kts 117°
2026-05-09 07:15 10.69586 -3.42272 34965 ft 477 kts 117°
2026-05-09 07:16 10.66674 -3.36283 34960 ft 477 kts 117°
2026-05-09 07:16 10.64043 -3.30874 34960 ft 477 kts 117°
2026-05-09 07:17 10.61367 -3.25374 34955 ft 477 kts 117°
2026-05-09 07:17 10.58680 -3.19856 34956 ft 478 kts 117°
2026-05-09 07:18 10.56018 -3.14390 34955 ft 478 kts 117°
2026-05-09 07:18 10.53327 -3.08869 34953 ft 479 kts 117°
2026-05-09 07:19 10.50633 -3.03360 34950 ft 479 kts 117°
2026-05-09 07:19 10.47946 -2.97880 34951 ft 480 kts 117°
2026-05-09 07:20 10.45252 -2.92385 34953 ft 480 kts 117°
2026-05-09 07:20 10.42562 -2.86894 34953 ft 481 kts 117°
2026-05-09 07:21 10.39296 -2.80980 34950 ft 480 kts 125°
2026-05-09 07:21 10.36173 -2.76506 34954 ft 480 kts 126°
2026-05-09 07:22 10.32644 -2.71522 34949 ft 481 kts 126°
2026-05-09 07:22 10.29151 -2.66557 34952 ft 481 kts 125°
2026-05-09 07:23 10.25639 -2.61527 34946 ft 481 kts 125°
2026-05-09 07:23 10.21773 -2.55976 34948 ft 482 kts 125°
2026-05-09 07:24 10.18630 -2.51462 34952 ft 482 kts 125°
2026-05-09 07:24 10.14763 -2.45913 34951 ft 482 kts 125°
2026-05-09 07:25 10.11615 -2.41399 34948 ft 482 kts 125°
2026-05-09 07:25 10.08121 -2.36391 34949 ft 482 kts 125°
2026-05-09 07:26 10.04242 -2.30836 34946 ft 482 kts 124°
2026-05-09 07:26 10.01131 -2.26381 34947 ft 482 kts 124°
2026-05-09 07:27 9.97272 -2.20857 34946 ft 482 kts 125°
2026-05-09 07:27 9.94127 -2.16357 34946 ft 482 kts 125°
2026-05-09 07:28 9.90266 -2.10837 34943 ft 481 kts 125°
2026-05-09 07:28 9.86761 -2.05826 34943 ft 481 kts 125°
2026-05-09 07:29 9.83663 -2.01399 34941 ft 481 kts 125°
2026-05-09 07:29 9.79793 -1.95872 34944 ft 480 kts 125°
2026-05-09 07:30 9.76711 -1.91471 34940 ft 480 kts 125°
2026-05-09 07:30 9.72844 -1.85953 34938 ft 480 kts 125°
2026-05-09 07:31 9.69394 -1.81033 34938 ft 480 kts 125°
2026-05-09 07:31 9.65929 -1.76091 34940 ft 480 kts 125°
2026-05-09 07:32 9.62467 -1.71157 34938 ft 480 kts 125°
2026-05-09 07:32 9.59196 -1.66497 34936 ft 480 kts 125°
2026-05-09 07:33 9.53594 -1.58521 34932 ft 480 kts 125°
2026-05-09 07:34 9.50519 -1.54145 34931 ft 479 kts 125°
2026-05-09 07:34 9.46848 -1.48921 34931 ft 480 kts 124°
2026-05-09 07:35 9.43198 -1.43729 34924 ft 480 kts 125°
2026-05-09 07:35 9.40134 -1.39375 34924 ft 481 kts 124°
2026-05-09 07:36 9.36247 -1.33851 34925 ft 482 kts 124°
2026-05-09 07:36 9.33167 -1.29476 34924 ft 482 kts 125°
2026-05-09 07:37 9.29268 -1.23940 34923 ft 483 kts 124°
2026-05-09 07:37 9.25781 -1.18991 34923 ft 484 kts 124°
2026-05-09 07:38 9.22283 -1.14028 34922 ft 484 kts 124°
2026-05-09 07:38 9.18795 -1.09082 34923 ft 484 kts 124°
2026-05-09 07:39 9.15789 -1.04820 34922 ft 485 kts 124°
2026-05-09 07:39 9.11871 -0.99268 34919 ft 485 kts 124°
2026-05-09 07:40 9.08368 -0.94305 34919 ft 485 kts 124°
2026-05-09 07:40 9.04936 -0.89447 34923 ft 485 kts 124°
2026-05-09 07:41 9.01451 -0.84515 34928 ft 485 kts 124°
2026-05-09 07:41 8.97958 -0.79571 34938 ft 491 kts 124°
2026-05-09 07:42 8.94524 -0.74717 34958 ft 475 kts 124°
2026-05-09 07:42 8.91061 -0.69820 34939 ft 483 kts 124°
2026-05-09 07:43 8.87584 -0.64904 34937 ft 490 kts 124°
2026-05-09 07:43 8.84108 -0.59994 34926 ft 491 kts 124°
2026-05-09 07:44 8.80624 -0.55074 34924 ft 491 kts 124°
2026-05-09 07:44 8.77130 -0.50143 34927 ft 490 kts 124°
2026-05-09 07:45 8.73828 -0.45482 34926 ft 489 kts 124°
2026-05-09 07:45 8.70106 -0.40233 34930 ft 488 kts 124°
2026-05-09 07:46 8.66813 -0.35589 34929 ft 488 kts 124°
2026-05-09 07:46 8.63169 -0.30452 34934 ft 487 kts 124°
2026-05-09 07:47 8.59760 -0.25648 34932 ft 487 kts 124°
2026-05-09 07:47 8.56448 -0.20983 34936 ft 487 kts 124°
2026-05-09 07:48 8.53059 -0.16210 34933 ft 487 kts 124°
2026-05-09 07:48 8.49110 -0.10652 34936 ft 487 kts 124°
2026-05-09 07:49 8.46104 -0.06422 34932 ft 487 kts 124°
2026-05-09 07:49 8.42150 -0.00860 34940 ft 487 kts 124°
2026-05-09 07:50 8.38701 0.03990 34935 ft 488 kts 124°
2026-05-09 07:50 8.35223 0.08879 34933 ft 488 kts 124°
2026-05-09 07:51 8.31781 0.13715 34931 ft 488 kts 124°
2026-05-09 07:51 8.28963 0.17673 34941 ft 488 kts 124°
2026-05-09 07:52 8.24807 0.23509 34939 ft 488 kts 124°
2026-05-09 07:52 8.21304 0.28426 34940 ft 487 kts 124°
2026-05-09 07:53 8.17816 0.33321 34945 ft 487 kts 124°
2026-05-09 07:53 8.14357 0.38173 34944 ft 487 kts 124°
2026-05-09 07:54 8.10880 0.43050 34950 ft 487 kts 124°
2026-05-09 07:54 8.07411 0.47914 34951 ft 487 kts 124°
2026-05-09 07:55 8.04124 0.52521 34953 ft 486 kts 124°
2026-05-09 07:55 8.00635 0.57648 34956 ft 485 kts 118°
2026-05-09 07:56 7.97782 0.62854 34962 ft 484 kts 116°
2026-05-09 07:56 7.95105 0.67866 34961 ft 485 kts 116°
2026-05-09 07:57 7.92167 0.73338 34959 ft 485 kts 117°
2026-05-09 07:57 7.88926 0.79318 34962 ft 486 kts 117°
2026-05-09 07:58 7.86620 0.83554 34964 ft 486 kts 117°
2026-05-09 07:58 7.83990 0.88380 34966 ft 486 kts 117°
2026-05-09 07:59 7.80900 0.94048 34963 ft 486 kts 117°
2026-05-09 07:59 7.78042 0.99293 34963 ft 487 kts 117°
2026-05-09 08:00 7.75211 1.04485 34965 ft 487 kts 117°
2026-05-09 08:00 7.72366 1.09704 34961 ft 487 kts 117°
2026-05-09 08:01 7.69516 1.14927 34958 ft 487 kts 117°
2026-05-09 08:01 7.66665 1.20152 34961 ft 486 kts 117°
2026-05-09 08:02 7.63823 1.25358 34962 ft 486 kts 117°
2026-05-09 08:02 7.60583 1.31290 34958 ft 486 kts 117°
2026-05-09 08:03 7.58186 1.35678 34963 ft 486 kts 117°
2026-05-09 08:03 7.55215 1.41115 34966 ft 486 kts 117°
2026-05-09 08:04 7.52112 1.46789 34838 ft 477 kts 117°
2026-05-09 08:04 7.50922 1.48964 34551 ft 476 kts 117°
2026-05-09 08:04 7.49747 1.51113 34226 ft 474 kts 117°
2026-05-09 08:04 7.48163 1.54008 33757 ft 470 kts 117°
2026-05-09 08:05 7.46590 1.56884 33247 ft 467 kts 117°
2026-05-09 08:05 7.45428 1.59007 32889 ft 464 kts 117°
2026-05-09 08:05 7.43873 1.61848 32416 ft 461 kts 117°
2026-05-09 08:05 7.42707 1.63979 32059 ft 458 kts 117°
2026-05-09 08:06 7.41198 1.66735 31598 ft 454 kts 117°
2026-05-09 08:06 7.40081 1.68775 31260 ft 452 kts 117°
2026-05-09 08:06 7.38566 1.71541 30798 ft 449 kts 117°
2026-05-09 08:06 7.37079 1.74257 30330 ft 446 kts 117°
2026-05-09 08:07 7.35978 1.76266 29984 ft 444 kts 117°
2026-05-09 08:07 7.34523 1.78923 29465 ft 441 kts 117°
2026-05-09 08:07 7.33453 1.80875 29105 ft 438 kts 117°
2026-05-09 08:07 7.31987 1.83550 28627 ft 434 kts 117°
2026-05-09 08:08 7.30945 1.85451 28290 ft 431 kts 117°
2026-05-09 08:08 7.29509 1.88070 27827 ft 426 kts 117°
2026-05-09 08:08 7.28077 1.90681 27384 ft 422 kts 117°
2026-05-09 08:08 7.26661 1.93265 26927 ft 419 kts 117°
2026-05-09 08:09 7.25636 1.95133 26618 ft 416 kts 117°
2026-05-09 08:09 7.24615 1.96995 26282 ft 414 kts 117°
2026-05-09 08:09 7.23249 1.99484 25840 ft 410 kts 117°
2026-05-09 08:09 7.21876 2.01988 25414 ft 407 kts 117°
2026-05-09 08:10 7.20883 2.03797 25090 ft 406 kts 117°
2026-05-09 08:10 7.19522 2.06276 24649 ft 403 kts 117°
2026-05-09 08:10 7.18170 2.08741 24224 ft 401 kts 117°
2026-05-09 08:10 7.16825 2.11190 23791 ft 399 kts 117°
2026-05-09 08:11 7.16214 2.12304 23588 ft 398 kts 117°
2026-05-09 08:11 7.14877 2.14738 23087 ft 396 kts 117°
2026-05-09 08:11 7.13550 2.17154 22631 ft 393 kts 117°
2026-05-09 08:11 7.12236 2.19546 22186 ft 389 kts 117°
2026-05-09 08:12 7.09995 2.23624 21454 ft 384 kts 117°
2026-05-09 08:12 7.08706 2.25970 21048 ft 381 kts 117°
2026-05-09 08:12 7.07844 2.27537 20751 ft 379 kts 117°
2026-05-09 08:13 7.06878 2.29296 20447 ft 377 kts 117°
2026-05-09 08:13 7.05630 2.31566 20044 ft 374 kts 117°
2026-05-09 08:13 7.04372 2.33854 19623 ft 372 kts 117°
2026-05-09 08:13 7.03122 2.36127 19196 ft 370 kts 117°
2026-05-09 08:14 7.02211 2.37783 18898 ft 369 kts 117°
2026-05-09 08:14 7.00986 2.40011 18492 ft 368 kts 117°
2026-05-09 08:14 6.99746 2.42265 18042 ft 367 kts 117°
2026-05-09 08:14 6.98863 2.43871 17714 ft 365 kts 117°
2026-05-09 08:15 6.97636 2.46101 17278 ft 363 kts 117°
2026-05-09 08:15 6.96762 2.47689 16989 ft 361 kts 117°
2026-05-09 08:15 6.95566 2.49862 16574 ft 358 kts 117°
2026-05-09 08:15 6.94364 2.52045 16171 ft 356 kts 117°
2026-05-09 08:16 6.93166 2.54222 15767 ft 353 kts 117°
2026-05-09 08:16 6.92309 2.55778 15482 ft 351 kts 117°
2026-05-09 08:16 6.91128 2.57924 15090 ft 349 kts 117°
2026-05-09 08:16 6.90278 2.59468 14809 ft 348 kts 117°
2026-05-09 08:17 6.89136 2.61541 14418 ft 346 kts 117°
2026-05-09 08:17 6.87972 2.63657 14017 ft 344 kts 117°
2026-05-09 08:17 6.87133 2.65179 13725 ft 343 kts 116°
2026-05-09 08:17 6.85978 2.67277 13283 ft 342 kts 116°
2026-05-09 08:18 6.84830 2.69360 12883 ft 339 kts 116°
2026-05-09 08:18 6.83691 2.71427 12485 ft 336 kts 116°
2026-05-09 08:18 6.82885 2.72940 12193 ft 330 kts 111°
2026-05-09 08:18 6.82205 2.75030 11836 ft 323 kts 99°
2026-05-09 08:19 6.81972 2.77259 11467 ft 318 kts 89°
2026-05-09 08:19 6.81979 2.79466 11107 ft 314 kts 88°
2026-05-09 08:19 6.82002 2.81659 10745 ft 312 kts 88°
2026-05-09 08:19 6.82020 2.83188 10546 ft 308 kts 88°
2026-05-09 08:20 6.82042 2.85311 10402 ft 299 kts 88°
2026-05-09 08:20 6.82061 2.87364 10248 ft 289 kts 88°
2026-05-09 08:20 6.82077 2.89360 10138 ft 280 kts 88°
2026-05-09 08:20 6.82087 2.90730 10047 ft 274 kts 88°
2026-05-09 08:21 6.82101 2.92620 9846 ft 267 kts 88°
2026-05-09 08:21 6.82113 2.94473 9517 ft 266 kts 88°
2026-05-09 08:21 6.82126 2.96323 9199 ft 263 kts 88°
2026-05-09 08:21 6.82137 2.98167 8895 ft 263 kts 88°
2026-05-09 08:22 6.82145 2.99465 8650 ft 264 kts 88°
2026-05-09 08:22 6.82157 3.01317 8323 ft 264 kts 89°
2026-05-09 08:22 6.82167 3.03167 8010 ft 264 kts 89°
2026-05-09 08:22 6.82178 3.05018 7687 ft 264 kts 89°
2026-05-09 08:23 6.82188 3.06837 7366 ft 263 kts 90°
2026-05-09 08:23 6.82194 3.08100 7153 ft 262 kts 90°
2026-05-09 08:23 6.82204 3.09969 6843 ft 262 kts 90°
2026-05-09 08:23 6.82215 3.11809 6535 ft 263 kts 90°
2026-05-09 08:24 6.82224 3.13653 6207 ft 264 kts 90°
2026-05-09 08:24 6.82233 3.15509 5866 ft 267 kts 91°
2026-05-09 08:24 6.82241 3.16881 5621 ft 267 kts 91°
2026-05-09 08:24 6.82251 3.18700 5312 ft 266 kts 91°
2026-05-09 08:25 6.82270 3.20566 4964 ft 268 kts 91°
2026-05-09 08:25 6.82301 3.22444 4673 ft 267 kts 91°
2026-05-09 08:25 6.82332 3.24284 4514 ft 259 kts 91°
2026-05-09 08:25 6.82355 3.25675 4336 ft 257 kts 91°
2026-05-09 08:26 6.82381 3.27309 4080 ft 255 kts 91°
2026-05-09 08:26 6.82104 3.29020 3753 ft 244 kts 119°
2026-05-09 08:26 6.81431 3.29964 3585 ft 237 kts 141°
2026-05-09 08:26 6.80059 3.30782 3447 ft 224 kts 162°
2026-05-09 08:27 6.78599 3.31067 3224 ft 216 kts 178°
2026-05-09 08:27 6.77089 3.31098 2881 ft 216 kts 181°
2026-05-09 08:27 6.75617 3.31104 2654 ft 211 kts 180°
2026-05-09 08:27 6.74167 3.31117 2446 ft 206 kts 180°
2026-05-09 08:28 6.73205 3.31128 2309 ft 204 kts 180°
2026-05-09 08:28 6.71770 3.31151 2129 ft 197 kts 181°
2026-05-09 08:28 6.70406 3.31172 2181 ft 191 kts 180°
2026-05-09 08:28 6.69092 3.31195 1835 ft 186 kts 181°
2026-05-09 08:29 6.67856 3.31211 1718 ft 173 kts 181°
2026-05-09 08:29 6.66638 3.31223 1720 ft 175 kts 181°
2026-05-09 08:29 6.65441 3.31238 1415 ft 165 kts 181°
2026-05-09 08:29 6.64360 3.31251 1219 ft 148 kts 181°
2026-05-09 08:30 6.63663 3.31259 1098 ft 146 kts 181°
2026-05-09 08:30 6.62615 3.31278 988 ft 148 kts 180°
2026-05-09 08:30 6.61607 3.31297 599 ft 138 kts 182°
2026-05-09 08:30 6.60640 3.31280 437 ft 147 kts 182°
2026-05-09 08:31 6.59575 3.31306 305 ft 158 kts 180°
2026-05-09 08:31 6.58478 3.31320 96 ft 155 kts 181°
2026-05-09 08:31 6.57481 3.31327 55 ft 120 kts 179°
2026-05-09 08:31 6.56833 3.31334 68 ft 67 kts 179°
2026-05-09 08:32 6.56510 3.31395 67 ft 43 kts 154°
2026-05-09 08:32 6.56464 3.31542 65 ft 27 kts 13°
2026-05-09 08:32 6.56933 3.31533 74 ft 38 kts 357°
2026-05-09 08:33 6.57192 3.31527 63 ft 37 kts
2026-05-09 08:33 6.57447 3.31525 64 ft 36 kts 359°
2026-05-09 08:33 6.57698 3.31526 57 ft 35 kts
2026-05-09 08:33 6.57935 3.31527 60 ft 33 kts
2026-05-09 08:34 6.58068 3.31608 70 ft 23 kts 64°
2026-05-09 08:34 6.58116 3.31750 99 ft 11 kts 104°
2026-05-09 08:34 6.58053 3.31790 100 ft 11 kts 156°
2026-05-09 08:34 6.57984 3.31821 101 ft 10 kts 156°
2026-05-09 08:35 6.57972 3.31844 101 ft 2 kts 70°
2026-05-09 08:35 6.57978 3.31855 99 ft 2 kts 63°
2026-05-09 08:35 6.57984 3.31867 101 ft 2 kts 63°
2026-05-09 08:35 6.57998 3.31899 101 ft 3 kts 66°
2026-05-09 08:36 6.58001 3.31907 100 ft 0 kts 66°